Wetterdaten: Samstag, 06.03.2010
Datum Zeit Temp. Innen Temp. Aussen UV X Diff Temp. Feuchte Inne Feuchte Auss Sonnenschein Luftdruck Regen ab 0,1 Wind Sonnenschein Windben
06.03.2010 00:00 11,4 C 2,0 C 0,0 UV-I 0,0 C 49 % 93 % 0 % 1013,5 hPa 0,0 l/m 9,2 km/h (2 Bft) 0 min 7,2 km/h (2 Bft)
06.03.2010 00:02 11,4 C 2,0 C 0,0 UV-I 0,0 C 49 % 93 % 0 % 1013,5 hPa 0,0 l/m 9,6 km/h (2 Bft) 0 min 9,9 km/h (2 Bft)
06.03.2010 00:04 11,5 C 2,0 C 0,0 UV-I 0,0 C 49 % 93 % 0 % 1013,5 hPa 0,0 l/m 9,6 km/h (2 Bft) 0 min 9,9 km/h (2 Bft)
06.03.2010 00:06 11,3 C 2,1 C 0,0 UV-I 0,0 C 49 % 93 % 0 % 1013,5 hPa 0,0 l/m 9,6 km/h (2 Bft) 0 min 4,6 km/h (1 Bft)
06.03.2010 00:08 11,5 C 2,0 C 0,0 UV-I 0,0 C 49 % 93 % 0 % 1013,5 hPa 0,0 l/m 9,2 km/h (2 Bft) 0 min 11,8 km/h (2 Bft)
06.03.2010 00:12 11,5 C 2,1 C 0,0 UV-I 0,0 C 49 % 94 % 0 % 1013,8 hPa 0,1 l/m 10,0 km/h (2 Bft) 0 min 20,0 km/h (4 Bft)
06.03.2010 00:14 11,5 C 2,2 C 0,0 UV-I 0,0 C 49 % 94 % 0 % 1013,8 hPa 0,0 l/m 9,6 km/h (2 Bft) 0 min 3,4 km/h (1 Bft)
06.03.2010 00:16 11,5 C 2,3 C 0,0 UV-I 0,0 C 49 % 94 % 0 % 1013,8 hPa 0,0 l/m 10,0 km/h (2 Bft) 0 min 4,1 km/h (1 Bft)
06.03.2010 00:18 11,5 C 2,3 C 0,0 UV-I 0,0 C 49 % 94 % 0 % 1013,8 hPa 0,0 l/m 10,4 km/h (2 Bft) 0 min 5,8 km/h (2 Bft)
06.03.2010 00:22 11,5 C 2,3 C 0,0 UV-I 0,0 C 49 % 94 % 0 % 1013,8 hPa 0,0 l/m 11,2 km/h (2 Bft) 0 min 20,0 km/h (4 Bft)
06.03.2010 00:24 11,5 C 2,4 C 0,0 UV-I 0,0 C 49 % 94 % 0 % 1013,8 hPa 0,0 l/m 10,4 km/h (2 Bft) 0 min 18,5 km/h (3 Bft)
06.03.2010 00:26 11,5 C 2,4 C 0,0 UV-I 0,0 C 49 % 94 % 0 % 1013,8 hPa 0,0 l/m 12,0 km/h (2 Bft) 0 min 16,8 km/h (3 Bft)
06.03.2010 00:28 11,5 C 2,5 C 0,0 UV-I 0,0 C 49 % 94 % 0 % 1013,8 hPa 0,0 l/m 11,6 km/h (2 Bft) 0 min 6,3 km/h (2 Bft)
06.03.2010 00:30 11,5 C 2,4 C 0,0 UV-I 0,0 C 49 % 94 % 0 % 1013,8 hPa 0,0 l/m 12,4 km/h (3 Bft) 0 min 6,7 km/h (2 Bft)
06.03.2010 00:32 11,5 C 2,5 C 0,0 UV-I 0,0 C 49 % 94 % 0 % 1013,6 hPa 0,0 l/m 12,0 km/h (2 Bft) 0 min 5,8 km/h (2 Bft)
06.03.2010 00:34 11,5 C 2,5 C 0,0 UV-I 0,0 C 49 % 94 % 0 % 1013,6 hPa 0,0 l/m 12,4 km/h (3 Bft) 0 min 18,5 km/h (3 Bft)
06.03.2010 00:36 11,5 C 2,6 C 0,0 UV-I 0,0 C 49 % 94 % 0 % 1013,6 hPa 0,0 l/m 11,2 km/h (2 Bft) 0 min 5,3 km/h (1 Bft)
06.03.2010 00:40 11,5 C 2,7 C 0,0 UV-I 0,0 C 49 % 94 % 0 % 1013,6 hPa 0,1 l/m 11,6 km/h (2 Bft) 0 min 14,7 km/h (3 Bft)
06.03.2010 00:42 11,5 C 2,6 C 0,0 UV-I 0,0 C 50 % 94 % 0 % 1013,6 hPa 0,1 l/m 10,8 km/h (2 Bft) 0 min 5,8 km/h (2 Bft)
06.03.2010 00:44 11,5 C 2,6 C 0,0 UV-I 0,0 C 50 % 94 % 0 % 1013,6 hPa 0,0 l/m 10,0 km/h (2 Bft) 0 min 5,3 km/h (1 Bft)
06.03.2010 00:46 11,4 C 2,7 C 0,0 UV-I 0,0 C 50 % 94 % 0 % 1013,6 hPa 0,1 l/m 8,8 km/h (2 Bft) 0 min 9,4 km/h (2 Bft)
06.03.2010 00:48 11,4 C 2,7 C 0,0 UV-I 0,0 C 50 % 94 % 0 % 1013,6 hPa 0,0 l/m 9,6 km/h (2 Bft) 0 min 13,0 km/h (3 Bft)
06.03.2010 00:58 11,6 C 2,9 C 0,0 UV-I 0,0 C 50 % 94 % 0 % 1013,6 hPa 0,7 l/m 9,2 km/h (2 Bft) 0 min 9,6 km/h (2 Bft)
06.03.2010 01:00 11,6 C 2,7 C 0,0 UV-I 0,0 C 50 % 94 % 0 % 1013,6 hPa 0,1 l/m 10,4 km/h (2 Bft) 0 min 21,2 km/h (4 Bft)
06.03.2010 01:04 11,6 C 2,2 C 0,0 UV-I 0,0 C 49 % 93 % 0 % 1013,6 hPa 0,0 l/m 12,8 km/h (3 Bft) 0 min 12,0 km/h (2 Bft)
06.03.2010 01:12 11,6 C 1,9 C 0,0 UV-I 0,0 C 49 % 92 % 0 % 1013,9 hPa 0,0 l/m 12,4 km/h (3 Bft) 0 min 9,6 km/h (2 Bft)
06.03.2010 01:16 11,7 C 1,8 C 0,0 UV-I 0,0 C 49 % 92 % 0 % 1013,9 hPa 0,2 l/m 12,0 km/h (2 Bft) 0 min 15,6 km/h (3 Bft)
06.03.2010 01:18 11,7 C 1,9 C 0,0 UV-I 0,0 C 49 % 92 % 0 % 1013,9 hPa 0,0 l/m 12,4 km/h (3 Bft) 0 min 14,0 km/h (3 Bft)
06.03.2010 01:22 11,7 C 1,9 C 0,0 UV-I 0,0 C 49 % 92 % 0 % 1013,9 hPa 0,1 l/m 12,0 km/h (2 Bft) 0 min 7,7 km/h (2 Bft)
06.03.2010 01:24 11,6 C 1,8 C 0,0 UV-I 0,0 C 49 % 92 % 0 % 1013,9 hPa 0,0 l/m 12,0 km/h (2 Bft) 0 min 6,7 km/h (2 Bft)
06.03.2010 01:28 11,7 C 1,7 C 0,0 UV-I 0,0 C 49 % 92 % 0 % 1013,9 hPa 0,1 l/m 11,2 km/h (2 Bft) 0 min 8,4 km/h (2 Bft)
06.03.2010 01:34 11,6 C 1,6 C 0,0 UV-I 0,0 C 49 % 92 % 0 % 1013,6 hPa 0,1 l/m 10,8 km/h (2 Bft) 0 min 7,2 km/h (2 Bft)
06.03.2010 01:36 11,6 C 1,6 C 0,0 UV-I 0,0 C 49 % 92 % 0 % 1013,6 hPa 0,0 l/m 10,4 km/h (2 Bft) 0 min 2,4 km/h (1 Bft)
06.03.2010 01:38 11,6 C 1,6 C 0,0 UV-I 0,0 C 49 % 92 % 0 % 1013,6 hPa 0,0 l/m 9,2 km/h (2 Bft) 0 min 0,0 km/h (0 Bft)
06.03.2010 01:40 11,6 C 1,6 C 0,0 UV-I 0,0 C 49 % 92 % 0 % 1013,6 hPa 0,0 l/m 9,6 km/h (2 Bft) 0 min 6,5 km/h (2 Bft)
06.03.2010 01:42 11,6 C 1,6 C 0,0 UV-I 0,0 C 49 % 92 % 0 % 1013,6 hPa 0,0 l/m 7,6 km/h (2 Bft) 0 min 4,8 km/h (1 Bft)
06.03.2010 01:44 11,6 C 1,6 C 0,0 UV-I 0,0 C 49 % 92 % 0 % 1013,6 hPa 0,0 l/m 5,6 km/h (1 Bft) 0 min 0,0 km/h (0 Bft)
06.03.2010 01:46 11,6 C 1,5 C 0,0 UV-I 0,0 C 49 % 92 % 0 % 1013,6 hPa 0,1 l/m 4,0 km/h (1 Bft) 0 min 0,0 km/h (0 Bft)
06.03.2010 01:48 11,6 C 1,5 C 0,0 UV-I 0,0 C 49 % 92 % 0 % 1013,6 hPa 0,0 l/m 2,8 km/h (1 Bft) 0 min 0,0 km/h (0 Bft)
06.03.2010 01:52 11,6 C 1,5 C 0,0 UV-I 0,0 C 48 % 92 % 0 % 1013,2 hPa 0,0 l/m 3,6 km/h (1 Bft) 0 min 7,7 km/h (2 Bft)
06.03.2010 01:54 11,8 C 1,5 C 0,0 UV-I 0,0 C 48 % 92 % 0 % 1013,2 hPa 0,0 l/m 3,6 km/h (1 Bft) 0 min 3,1 km/h (1 Bft)
06.03.2010 01:56 11,8 C 1,5 C 0,0 UV-I 0,0 C 48 % 92 % 0 % 1013,2 hPa 0,0 l/m 4,4 km/h (1 Bft) 0 min 5,8 km/h (2 Bft)
06.03.2010 01:58 11,8 C 1,4 C 0,0 UV-I 0,0 C 48 % 92 % 0 % 1013,2 hPa 0,0 l/m 6,4 km/h (2 Bft) 0 min 9,6 km/h (2 Bft)
06.03.2010 02:04 11,8 C 1,5 C 0,0 UV-I 0,0 C 48 % 92 % 0 % 1013,2 hPa 0,0 l/m 7,6 km/h (2 Bft) 0 min 22,4 km/h (4 Bft)
06.03.2010 02:06 11,8 C 1,4 C 0,0 UV-I 0,0 C 48 % 92 % 0 % 1013,2 hPa 0,0 l/m 8,4 km/h (2 Bft) 0 min 12,3 km/h (3 Bft)
06.03.2010 02:10 11,8 C 1,3 C 0,0 UV-I 0,0 C 48 % 92 % 0 % 1013,2 hPa 0,0 l/m 8,0 km/h (2 Bft) 0 min 6,7 km/h (2 Bft)
06.03.2010 02:12 11,8 C 1,3 C 0,0 UV-I 0,0 C 48 % 92 % 0 % 1013,5 hPa 0,0 l/m 8,4 km/h (2 Bft) 0 min 22,4 km/h (4 Bft)
06.03.2010 02:22 11,6 C 1,3 C 0,0 UV-I 0,0 C 48 % 92 % 0 % 1013,5 hPa 0,1 l/m 8,8 km/h (2 Bft) 0 min 12,5 km/h (3 Bft)
06.03.2010 02:26 11,6 C 1,2 C 0,0 UV-I 0,0 C 48 % 92 % 0 % 1013,5 hPa 0,0 l/m 10,0 km/h (2 Bft) 0 min 16,6 km/h (3 Bft)
06.03.2010 02:28 11,6 C 1,2 C 0,0 UV-I 0,0 C 48 % 93 % 0 % 1013,5 hPa 0,0 l/m 10,0 km/h (2 Bft) 0 min 5,8 km/h (2 Bft)
06.03.2010 02:32 11,6 C 1,2 C 0,0 UV-I 0,0 C 48 % 93 % 0 % 1013,3 hPa 0,1 l/m 10,0 km/h (2 Bft) 0 min 7,7 km/h (2 Bft)
06.03.2010 02:33 11,6 C 1,2 C 0,0 UV-I 0,0 C 48 % 93 % 0 % 1013,3 hPa 0,0 l/m 10,4 km/h (2 Bft) 0 min 6,5 km/h (2 Bft)
06.03.2010 02:38 11,7 C 1,2 C 0,0 UV-I 0,0 C 48 % 93 % 0 % 1013,3 hPa 0,1 l/m 8,8 km/h (2 Bft) 0 min 14,0 km/h (3 Bft)
06.03.2010 02:43 11,6 C 1,2 C 0,0 UV-I 0,0 C 48 % 93 % 0 % 1013,3 hPa 0,1 l/m 7,6 km/h (2 Bft) 0 min 4,3 km/h (1 Bft)
06.03.2010 02:48 11,6 C 1,2 C 0,0 UV-I 0,0 C 48 % 93 % 0 % 1013,3 hPa 0,0 l/m 8,8 km/h (2 Bft) 0 min 9,1 km/h (2 Bft)
06.03.2010 02:53 11,6 C 1,2 C 0,0 UV-I 0,0 C 48 % 93 % 0 % 1012,6 hPa 0,1 l/m 9,6 km/h (2 Bft) 0 min 14,0 km/h (3 Bft)
06.03.2010 02:58 11,6 C 1,2 C 0,0 UV-I 0,0 C 48 % 93 % 0 % 1012,6 hPa 0,0 l/m 11,2 km/h (2 Bft) 0 min 16,4 km/h (3 Bft)
06.03.2010 03:03 11,6 C 1,2 C 0,0 UV-I 0,0 C 48 % 93 % 0 % 1012,6 hPa 0,0 l/m 10,8 km/h (2 Bft) 0 min 5,5 km/h (1 Bft)
06.03.2010 03:08 11,6 C 1,2 C 0,0 UV-I 0,0 C 48 % 93 % 0 % 1012,6 hPa 0,0 l/m 8,4 km/h (2 Bft) 0 min 9,6 km/h (2 Bft)
06.03.2010 03:13 11,6 C 1,1 C 0,0 UV-I 0,0 C 48 % 93 % 0 % 1012,3 hPa 0,1 l/m 7,2 km/h (2 Bft) 0 min 0,0 km/h (0 Bft)
06.03.2010 03:18 11,6 C 1,1 C 0,0 UV-I 0,0 C 48 % 93 % 0 % 1012,3 hPa 0,0 l/m 5,6 km/h (1 Bft) 0 min 3,8 km/h (1 Bft)
06.03.2010 03:23 11,6 C 1,1 C 0,0 UV-I 0,0 C 48 % 93 % 0 % 1012,3 hPa 0,0 l/m 6,0 km/h (2 Bft) 0 min 7,7 km/h (2 Bft)
06.03.2010 03:28 11,6 C 1,1 C 0,0 UV-I 0,0 C 48 % 93 % 0 % 1012,3 hPa 0,0 l/m 8,4 km/h (2 Bft) 0 min 5,3 km/h (1 Bft)
06.03.2010 03:33 11,6 C 1,1 C 0,0 UV-I 0,0 C 48 % 93 % 0 % 1012,3 hPa 0,0 l/m 9,2 km/h (2 Bft) 0 min 14,2 km/h (3 Bft)
06.03.2010 03:38 11,6 C 1,1 C 0,0 UV-I 0,0 C 48 % 93 % 0 % 1012,3 hPa 0,0 l/m 7,2 km/h (2 Bft) 0 min 6,0 km/h (2 Bft)
06.03.2010 03:43 11,6 C 1,1 C 0,0 UV-I 0,0 C 48 % 93 % 0 % 1012,3 hPa 0,0 l/m 6,4 km/h (2 Bft) 0 min 4,1 km/h (1 Bft)
06.03.2010 03:48 11,6 C 1,2 C 0,0 UV-I 0,0 C 48 % 93 % 0 % 1012,3 hPa 0,1 l/m 7,2 km/h (2 Bft) 0 min 5,3 km/h (1 Bft)
06.03.2010 03:53 11,6 C 1,2 C 0,0 UV-I 0,0 C 48 % 93 % 0 % 1012,3 hPa 0,0 l/m 8,8 km/h (2 Bft) 0 min 9,9 km/h (2 Bft)
06.03.2010 03:58 11,6 C 1,1 C 0,0 UV-I 0,0 C 48 % 93 % 0 % 1012,3 hPa 0,0 l/m 10,8 km/h (2 Bft) 0 min 5,8 km/h (2 Bft)
06.03.2010 04:03 11,7 C 1,1 C 0,0 UV-I 0,0 C 48 % 93 % 0 % 1012,3 hPa 0,0 l/m 11,6 km/h (2 Bft) 0 min 7,7 km/h (2 Bft)
06.03.2010 04:08 11,6 C 1,1 C 0,0 UV-I 0,0 C 48 % 93 % 0 % 1012,3 hPa 0,0 l/m 9,2 km/h (2 Bft) 0 min 13,7 km/h (3 Bft)
06.03.2010 04:13 11,6 C 1,1 C 0,0 UV-I 0,0 C 48 % 93 % 0 % 1012,3 hPa 0,0 l/m 8,0 km/h (2 Bft) 0 min 8,7 km/h (2 Bft)
06.03.2010 04:18 11,7 C 1,1 C 0,0 UV-I 0,0 C 48 % 92 % 0 % 1012,3 hPa 0,0 l/m 9,6 km/h (2 Bft) 0 min 17,1 km/h (3 Bft)
06.03.2010 04:23 11,6 C 1,0 C 0,0 UV-I 0,0 C 48 % 92 % 0 % 1012,3 hPa 0,0 l/m 9,6 km/h (2 Bft) 0 min 4,3 km/h (1 Bft)
06.03.2010 04:28 11,6 C 1,0 C 0,0 UV-I 0,0 C 48 % 92 % 0 % 1012,3 hPa 0,0 l/m 12,0 km/h (2 Bft) 0 min 12,5 km/h (3 Bft)
06.03.2010 04:33 11,6 C 1,0 C 0,0 UV-I 0,0 C 48 % 92 % 0 % 1011,8 hPa 0,0 l/m 13,7 km/h (3 Bft) 0 min 8,4 km/h (2 Bft)
06.03.2010 04:38 11,6 C 1,1 C 0,0 UV-I 0,0 C 48 % 91 % 0 % 1011,8 hPa 0,0 l/m 14,5 km/h (3 Bft) 0 min 6,0 km/h (2 Bft)
06.03.2010 04:43 11,6 C 1,1 C 0,0 UV-I 0,0 C 48 % 90 % 0 % 1011,8 hPa 0,0 l/m 14,1 km/h (3 Bft) 0 min 12,0 km/h (2 Bft)
06.03.2010 04:48 11,6 C 1,1 C 0,0 UV-I 0,0 C 47 % 90 % 0 % 1011,8 hPa 0,0 l/m 12,8 km/h (3 Bft) 0 min 17,6 km/h (3 Bft)
06.03.2010 04:53 11,6 C 1,1 C 0,0 UV-I 0,0 C 47 % 90 % 0 % 1011,7 hPa 0,0 l/m 13,3 km/h (3 Bft) 0 min 15,4 km/h (3 Bft)
06.03.2010 04:58 11,6 C 1,2 C 0,0 UV-I 0,0 C 47 % 89 % 0 % 1011,7 hPa 0,0 l/m 12,8 km/h (3 Bft) 0 min 9,1 km/h (2 Bft)
06.03.2010 05:03 11,6 C 1,2 C 0,0 UV-I 0,0 C 47 % 89 % 0 % 1011,7 hPa 0,0 l/m 15,3 km/h (3 Bft) 0 min 11,5 km/h (2 Bft)
06.03.2010 05:08 11,4 C 1,2 C 0,0 UV-I 0,0 C 47 % 88 % 0 % 1011,7 hPa 0,0 l/m 16,1 km/h (3 Bft) 0 min 10,3 km/h (2 Bft)
06.03.2010 05:13 11,5 C 1,2 C 0,0 UV-I 0,0 C 47 % 88 % 0 % 1011,8 hPa 0,0 l/m 14,5 km/h (3 Bft) 0 min 7,5 km/h (2 Bft)
06.03.2010 05:18 11,5 C 1,2 C 0,0 UV-I 0,0 C 47 % 88 % 0 % 1011,8 hPa 0,0 l/m 14,1 km/h (3 Bft) 0 min 12,0 km/h (2 Bft)
06.03.2010 05:23 11,4 C 1,2 C 0,0 UV-I 0,0 C 47 % 88 % 0 % 1011,8 hPa 0,0 l/m 14,9 km/h (3 Bft) 0 min 3,4 km/h (1 Bft)
06.03.2010 05:28 11,5 C 1,2 C 0,0 UV-I 0,0 C 47 % 87 % 0 % 1011,8 hPa 0,0 l/m 14,9 km/h (3 Bft) 0 min 15,9 km/h (3 Bft)
06.03.2010 05:33 11,5 C 1,2 C 0,0 UV-I 0,0 C 47 % 87 % 0 % 1011,9 hPa 0,0 l/m 12,0 km/h (2 Bft) 0 min 5,1 km/h (1 Bft)
06.03.2010 05:38 11,5 C 1,2 C 0,0 UV-I 0,0 C 47 % 87 % 0 % 1011,9 hPa 0,0 l/m 12,0 km/h (2 Bft) 0 min 7,7 km/h (2 Bft)
06.03.2010 05:43 11,5 C 1,2 C 0,0 UV-I 0,0 C 47 % 88 % 0 % 1011,9 hPa 0,0 l/m 12,8 km/h (3 Bft) 0 min 7,5 km/h (2 Bft)
06.03.2010 05:48 11,5 C 1,3 C 0,0 UV-I 0,0 C 47 % 88 % 0 % 1011,9 hPa 0,0 l/m 12,4 km/h (3 Bft) 0 min 4,8 km/h (1 Bft)
06.03.2010 05:53 11,5 C 1,3 C 0,0 UV-I 0,0 C 47 % 88 % 0 % 1012,4 hPa 0,0 l/m 13,3 km/h (3 Bft) 0 min 12,8 km/h (3 Bft)
06.03.2010 05:58 11,5 C 1,2 C 0,0 UV-I 0,0 C 47 % 88 % 0 % 1012,4 hPa 0,0 l/m 11,2 km/h (2 Bft) 0 min 6,7 km/h (2 Bft)
06.03.2010 06:03 11,5 C 1,2 C 0,0 UV-I 0,0 C 47 % 88 % 0 % 1012,4 hPa 0,0 l/m 11,6 km/h (2 Bft) 0 min 4,6 km/h (1 Bft)
06.03.2010 06:08 11,5 C 1,3 C 0,0 UV-I 0,0 C 47 % 87 % 0 % 1012,4 hPa 0,0 l/m 14,1 km/h (3 Bft) 0 min 4,3 km/h (1 Bft)
06.03.2010 06:13 11,5 C 1,3 C 0,0 UV-I 0,0 C 47 % 87 % 0 % 1012,9 hPa 0,0 l/m 15,3 km/h (3 Bft) 0 min 8,4 km/h (2 Bft)
06.03.2010 06:18 11,5 C 1,3 C 0,0 UV-I 0,0 C 47 % 86 % 0 % 1012,9 hPa 0,0 l/m 16,9 km/h (3 Bft) 0 min 15,2 km/h (3 Bft)
06.03.2010 06:23 11,5 C 1,3 C 0,0 UV-I 0,0 C 47 % 86 % 0 % 1012,9 hPa 0,0 l/m 17,3 km/h (3 Bft) 0 min 7,7 km/h (2 Bft)
06.03.2010 06:28 11,5 C 1,3 C 0,0 UV-I 0,0 C 47 % 86 % 0 % 1012,9 hPa 0,0 l/m 14,5 km/h (3 Bft) 0 min 7,5 km/h (2 Bft)
06.03.2010 06:33 11,5 C 1,2 C 0,0 UV-I 0,0 C 47 % 86 % 0 % 1012,9 hPa 0,0 l/m 13,3 km/h (3 Bft) 0 min 9,1 km/h (2 Bft)
06.03.2010 06:37 11,5 C 1,2 C 0,0 UV-I 0,0 C 47 % 86 % 0 % 1012,9 hPa 0,0 l/m 14,1 km/h (3 Bft) 0 min 8,9 km/h (2 Bft)
06.03.2010 06:38 11,5 C 1,2 C 0,0 UV-I 0,0 C 47 % 86 % 0 % 1012,9 hPa 0,0 l/m 14,1 km/h (3 Bft) 0 min 8,9 km/h (2 Bft)
06.03.2010 06:40 11,5 C 1,2 C 0,0 UV-I 0,0 C 47 % 85 % 0 % 1012,9 hPa 0,0 l/m 15,7 km/h (3 Bft) 0 min 15,9 km/h (3 Bft)
06.03.2010 06:42 11,5 C 1,2 C 0,0 UV-I 0,0 C 47 % 85 % 0 % 1012,9 hPa 0,0 l/m 15,7 km/h (3 Bft) 0 min 7,2 km/h (2 Bft)
06.03.2010 06:44 11,5 C 1,3 C 0,0 UV-I 0,0 C 47 % 86 % 0 % 1012,9 hPa 0,0 l/m 16,1 km/h (3 Bft) 0 min 8,2 km/h (2 Bft)
06.03.2010 06:48 11,4 C 1,2 C 0,0 UV-I 0,0 C 47 % 85 % 0 % 1012,9 hPa 0,0 l/m 15,3 km/h (3 Bft) 0 min 11,5 km/h (2 Bft)
06.03.2010 06:52 11,4 C 1,2 C 0,0 UV-I 0,0 C 47 % 85 % 0 % 1014,1 hPa 0,0 l/m 14,1 km/h (3 Bft) 0 min 5,8 km/h (2 Bft)
06.03.2010 06:54 11,3 C 1,1 C 0,0 UV-I 0,0 C 47 % 85 % 0 % 1014,1 hPa 0,0 l/m 14,5 km/h (3 Bft) 0 min 14,4 km/h (3 Bft)
06.03.2010 06:56 11,4 C 1,1 C 0,0 UV-I 0,0 C 47 % 85 % 0 % 1014,1 hPa 0,0 l/m 15,7 km/h (3 Bft) 0 min 11,8 km/h (2 Bft)
06.03.2010 06:58 11,3 C 1,1 C 0,0 UV-I 0,0 C 47 % 85 % 0 % 1014,1 hPa 0,0 l/m 15,7 km/h (3 Bft) 0 min 8,2 km/h (2 Bft)
06.03.2010 07:00 11,5 C 1,1 C 0,0 UV-I 0,0 C 47 % 85 % 0 % 1014,1 hPa 0,0 l/m 14,5 km/h (3 Bft) 0 min 8,7 km/h (2 Bft)
06.03.2010 07:02 11,5 C 1,1 C 0,0 UV-I 0,0 C 47 % 85 % 0 % 1014,1 hPa 0,0 l/m 14,9 km/h (3 Bft) 0 min 15,4 km/h (3 Bft)
06.03.2010 07:04 11,3 C 1,1 C 0,0 UV-I 0,0 C 47 % 85 % 0 % 1014,1 hPa 0,0 l/m 15,3 km/h (3 Bft) 0 min 11,8 km/h (2 Bft)
06.03.2010 07:06 11,3 C 1,1 C 0,0 UV-I 0,0 C 47 % 85 % 0 % 1014,1 hPa 0,0 l/m 14,5 km/h (3 Bft) 0 min 13,2 km/h (3 Bft)
06.03.2010 07:08 11,5 C 1,1 C 0,0 UV-I 0,0 C 47 % 85 % 0 % 1014,1 hPa 0,0 l/m 13,7 km/h (3 Bft) 0 min 8,7 km/h (2 Bft)
06.03.2010 07:10 11,5 C 1,1 C 0,0 UV-I 0,0 C 47 % 85 % 0 % 1014,1 hPa 0,0 l/m 14,5 km/h (3 Bft) 0 min 11,3 km/h (2 Bft)
06.03.2010 07:12 11,5 C 1,0 C 0,0 UV-I 0,0 C 47 % 85 % 0 % 1014,8 hPa 0,0 l/m 14,1 km/h (3 Bft) 0 min 12,3 km/h (3 Bft)
06.03.2010 07:14 11,5 C 1,1 C 0,0 UV-I 0,0 C 47 % 84 % 0 % 1014,8 hPa 0,0 l/m 14,5 km/h (3 Bft) 0 min 17,1 km/h (3 Bft)
06.03.2010 07:16 11,5 C 1,1 C 0,0 UV-I 0,0 C 47 % 84 % 0 % 1014,8 hPa 0,0 l/m 14,9 km/h (3 Bft) 0 min 9,4 km/h (2 Bft)
06.03.2010 07:18 11,5 C 1,1 C 0,0 UV-I 0,0 C 47 % 84 % 0 % 1014,8 hPa 0,0 l/m 13,7 km/h (3 Bft) 0 min 3,6 km/h (1 Bft)
06.03.2010 07:20 11,5 C 1,1 C 0,0 UV-I 0,0 C 47 % 84 % 0 % 1014,8 hPa 0,0 l/m 14,9 km/h (3 Bft) 0 min 12,3 km/h (3 Bft)
06.03.2010 07:22 11,5 C 0,9 C 0,0 UV-I 0,0 C 47 % 84 % 0 % 1014,8 hPa 0,0 l/m 15,3 km/h (3 Bft) 0 min 11,8 km/h (2 Bft)
06.03.2010 07:24 11,5 C 0,9 C 0,0 UV-I 0,0 C 46 % 84 % 0 % 1014,8 hPa 0,0 l/m 14,9 km/h (3 Bft) 0 min 4,6 km/h (1 Bft)
06.03.2010 07:26 11,5 C 0,9 C 0,0 UV-I 0,0 C 46 % 84 % 0 % 1014,8 hPa 0,0 l/m 14,1 km/h (3 Bft) 0 min 11,8 km/h (2 Bft)
06.03.2010 07:28 11,5 C 0,9 C 0,0 UV-I 0,0 C 46 % 84 % 0 % 1014,8 hPa 0,0 l/m 14,9 km/h (3 Bft) 0 min 16,6 km/h (3 Bft)
06.03.2010 07:30 11,5 C 0,9 C 0,0 UV-I 0,0 C 46 % 84 % 0 % 1014,8 hPa 0,0 l/m 15,3 km/h (3 Bft) 0 min 9,9 km/h (2 Bft)
06.03.2010 07:32 11,4 C 0,9 C 0,0 UV-I 0,0 C 46 % 84 % 0 % 1015,1 hPa 0,0 l/m 14,9 km/h (3 Bft) 0 min 14,0 km/h (3 Bft)
06.03.2010 07:34 11,4 C 0,8 C 0,0 UV-I 0,0 C 46 % 84 % 0 % 1015,1 hPa 0,0 l/m 14,9 km/h (3 Bft) 0 min 9,6 km/h (2 Bft)
06.03.2010 07:36 11,4 C 0,8 C 0,0 UV-I 0,0 C 46 % 84 % 0 % 1015,1 hPa 0,0 l/m 16,1 km/h (3 Bft) 0 min 18,5 km/h (3 Bft)
06.03.2010 07:38 11,4 C 0,8 C 0,0 UV-I 0,0 C 46 % 83 % 0 % 1015,1 hPa 0,0 l/m 17,3 km/h (3 Bft) 0 min 12,3 km/h (3 Bft)
06.03.2010 07:40 11,4 C 0,8 C 0,0 UV-I 0,0 C 46 % 83 % 0 % 1015,1 hPa 0,0 l/m 16,1 km/h (3 Bft) 0 min 7,0 km/h (2 Bft)
06.03.2010 07:42 11,6 C 0,9 C 0,0 UV-I 0,0 C 46 % 84 % 0 % 1015,1 hPa 0,0 l/m 16,1 km/h (3 Bft) 0 min 10,3 km/h (2 Bft)
06.03.2010 07:44 11,4 C 0,8 C 0,0 UV-I 0,0 C 46 % 83 % 0 % 1015,1 hPa 0,0 l/m 16,1 km/h (3 Bft) 0 min 11,8 km/h (2 Bft)
06.03.2010 07:46 11,6 C 0,8 C 0,0 UV-I 0,0 C 46 % 84 % 0 % 1015,1 hPa 0,0 l/m 14,9 km/h (3 Bft) 0 min 6,7 km/h (2 Bft)
06.03.2010 07:48 11,6 C 0,8 C 0,0 UV-I 0,0 C 46 % 84 % 0 % 1015,1 hPa 0,0 l/m 14,1 km/h (3 Bft) 0 min 12,5 km/h (3 Bft)
06.03.2010 07:50 11,6 C 0,8 C 0,0 UV-I 0,0 C 46 % 84 % 0 % 1015,1 hPa 0,0 l/m 13,7 km/h (3 Bft) 0 min 14,7 km/h (3 Bft)
06.03.2010 07:52 11,6 C 0,8 C 0,0 UV-I 0,0 C 46 % 84 % 0 % 1015,8 hPa 0,0 l/m 14,5 km/h (3 Bft) 0 min 13,5 km/h (3 Bft)
06.03.2010 07:54 11,6 C 0,8 C 0,0 UV-I 0,0 C 46 % 84 % 0 % 1015,8 hPa 0,0 l/m 13,7 km/h (3 Bft) 0 min 2,6 km/h (1 Bft)
06.03.2010 07:56 11,6 C 0,8 C 0,0 UV-I 0,0 C 46 % 84 % 0 % 1015,8 hPa 0,0 l/m 13,3 km/h (3 Bft) 0 min 6,5 km/h (2 Bft)
06.03.2010 07:58 11,6 C 0,8 C 0,0 UV-I 0,0 C 46 % 84 % 0 % 1015,8 hPa 0,0 l/m 12,4 km/h (3 Bft) 0 min 3,6 km/h (1 Bft)
06.03.2010 08:00 11,6 C 0,8 C 0,0 UV-I 0,0 C 46 % 84 % 0 % 1015,8 hPa 0,0 l/m 11,2 km/h (2 Bft) 0 min 9,9 km/h (2 Bft)
06.03.2010 08:02 11,6 C 0,7 C 0,0 UV-I 0,0 C 46 % 84 % 0 % 1015,8 hPa 0,0 l/m 10,4 km/h (2 Bft) 0 min 8,9 km/h (2 Bft)
06.03.2010 08:04 11,6 C 0,7 C 0,0 UV-I 0,0 C 46 % 84 % 0 % 1015,8 hPa 0,0 l/m 10,0 km/h (2 Bft) 0 min 9,6 km/h (2 Bft)
06.03.2010 08:06 11,6 C 0,7 C 0,0 UV-I 0,0 C 46 % 84 % 0 % 1015,8 hPa 0,0 l/m 10,0 km/h (2 Bft) 0 min 4,6 km/h (1 Bft)
06.03.2010 08:08 11,6 C 0,7 C 0,0 UV-I 0,0 C 46 % 84 % 0 % 1015,8 hPa 0,0 l/m 10,8 km/h (2 Bft) 0 min 13,5 km/h (3 Bft)
06.03.2010 08:10 11,6 C 0,7 C 0,0 UV-I 0,0 C 46 % 84 % 0 % 1015,8 hPa 0,0 l/m 12,0 km/h (2 Bft) 0 min 9,6 km/h (2 Bft)
06.03.2010 08:12 11,6 C 0,7 C 0,0 UV-I 0,0 C 46 % 84 % 0 % 1016,1 hPa 0,0 l/m 11,6 km/h (2 Bft) 0 min 11,1 km/h (2 Bft)
06.03.2010 08:14 11,6 C 0,7 C 0,0 UV-I 0,0 C 46 % 84 % 0 % 1016,1 hPa 0,0 l/m 11,6 km/h (2 Bft) 0 min 6,7 km/h (2 Bft)
06.03.2010 08:16 11,6 C 0,7 C 0,0 UV-I 0,0 C 46 % 84 % 0 % 1016,1 hPa 0,0 l/m 11,6 km/h (2 Bft) 0 min 3,1 km/h (1 Bft)
06.03.2010 08:18 11,6 C 0,7 C 0,0 UV-I 0,0 C 46 % 84 % 0 % 1016,1 hPa 0,0 l/m 11,6 km/h (2 Bft) 0 min 4,8 km/h (1 Bft)
06.03.2010 08:20 11,6 C 0,6 C 0,0 UV-I 0,0 C 46 % 84 % 0 % 1016,1 hPa 0,1 l/m 10,8 km/h (2 Bft) 0 min 6,3 km/h (2 Bft)
06.03.2010 08:22 11,6 C 0,7 C 0,0 UV-I 0,0 C 46 % 84 % 0 % 1016,1 hPa 0,0 l/m 10,4 km/h (2 Bft) 0 min 12,0 km/h (2 Bft)
06.03.2010 08:24 11,6 C 0,6 C 0,0 UV-I 0,0 C 46 % 84 % 0 % 1016,1 hPa 0,0 l/m 11,2 km/h (2 Bft) 0 min 17,8 km/h (3 Bft)
06.03.2010 08:26 11,6 C 0,6 C 0,0 UV-I 0,0 C 46 % 84 % 0 % 1016,1 hPa 0,0 l/m 12,0 km/h (2 Bft) 0 min 11,5 km/h (2 Bft)
06.03.2010 08:28 11,7 C 0,7 C 0,0 UV-I 0,0 C 46 % 84 % 0 % 1016,1 hPa 0,0 l/m 12,0 km/h (2 Bft) 0 min 3,8 km/h (1 Bft)
06.03.2010 08:30 11,7 C 0,7 C 0,0 UV-I 0,0 C 46 % 84 % 0 % 1016,1 hPa 0,0 l/m 12,8 km/h (3 Bft) 0 min 13,2 km/h (3 Bft)
06.03.2010 08:32 11,7 C 0,7 C 0,0 UV-I 0,0 C 46 % 84 % 0 % 1016,8 hPa 0,0 l/m 13,3 km/h (3 Bft) 0 min 5,8 km/h (2 Bft)
06.03.2010 08:34 11,6 C 0,6 C 0,0 UV-I 0,0 C 46 % 84 % 0 % 1016,8 hPa 0,0 l/m 12,8 km/h (3 Bft) 0 min 7,5 km/h (2 Bft)
06.03.2010 08:36 11,7 C 0,7 C 0,0 UV-I 0,0 C 46 % 84 % 0 % 1016,8 hPa 0,0 l/m 10,8 km/h (2 Bft) 0 min 6,3 km/h (2 Bft)
06.03.2010 08:38 11,7 C 0,7 C 0,0 UV-I 0,0 C 46 % 84 % 0 % 1016,8 hPa 0,0 l/m 9,6 km/h (2 Bft) 0 min 5,3 km/h (1 Bft)
06.03.2010 08:40 11,6 C 0,7 C 0,0 UV-I 0,0 C 46 % 84 % 0 % 1016,8 hPa 0,0 l/m 9,6 km/h (2 Bft) 0 min 5,8 km/h (2 Bft)
06.03.2010 08:42 11,6 C 0,7 C 0,0 UV-I 0,0 C 45 % 84 % 0 % 1016,8 hPa 0,0 l/m 10,4 km/h (2 Bft) 0 min 26,0 km/h (4 Bft)
06.03.2010 08:44 11,6 C 0,7 C 0,0 UV-I 0,0 C 45 % 84 % 0 % 1016,8 hPa 0,0 l/m 11,2 km/h (2 Bft) 0 min 7,9 km/h (2 Bft)
06.03.2010 08:46 11,6 C 0,7 C 0,0 UV-I 0,0 C 45 % 84 % 0 % 1016,8 hPa 0,0 l/m 11,2 km/h (2 Bft) 0 min 13,5 km/h (3 Bft)
06.03.2010 08:50 11,6 C 0,7 C 0,0 UV-I 0,0 C 45 % 84 % 0 % 1016,8 hPa 0,0 l/m 12,8 km/h (3 Bft) 0 min 9,6 km/h (2 Bft)
06.03.2010 08:52 11,7 C 0,7 C 0,0 UV-I 0,0 C 45 % 84 % 0 % 1017,2 hPa 0,0 l/m 12,4 km/h (3 Bft) 0 min 6,0 km/h (2 Bft)
06.03.2010 08:54 11,6 C 0,7 C 0,0 UV-I 0,0 C 45 % 84 % 0 % 1017,2 hPa 0,0 l/m 10,8 km/h (2 Bft) 0 min 13,0 km/h (3 Bft)
06.03.2010 08:56 11,6 C 0,7 C 0,0 UV-I 0,0 C 45 % 83 % 0 % 1017,2 hPa 0,0 l/m 11,6 km/h (2 Bft) 0 min 14,0 km/h (3 Bft)
06.03.2010 08:58 11,6 C 0,7 C 0,0 UV-I 0,0 C 45 % 83 % 0 % 1017,2 hPa 0,0 l/m 11,6 km/h (2 Bft) 0 min 9,1 km/h (2 Bft)
06.03.2010 09:00 11,6 C 0,7 C 0,0 UV-I 0,0 C 45 % 83 % 0 % 1017,2 hPa 0,0 l/m 10,4 km/h (2 Bft) 0 min 6,0 km/h (2 Bft)
06.03.2010 09:02 11,6 C 0,7 C 0,0 UV-I 0,0 C 45 % 83 % 0 % 1017,2 hPa 0,0 l/m 10,8 km/h (2 Bft) 0 min 4,8 km/h (1 Bft)
06.03.2010 09:04 11,6 C 0,7 C 0,0 UV-I 0,0 C 45 % 83 % 0 % 1017,2 hPa 0,0 l/m 10,4 km/h (2 Bft) 0 min 5,3 km/h (1 Bft)
06.03.2010 09:06 11,6 C 0,7 C 0,0 UV-I 0,0 C 45 % 83 % 0 % 1017,2 hPa 0,0 l/m 11,6 km/h (2 Bft) 0 min 16,8 km/h (3 Bft)
06.03.2010 09:08 11,6 C 0,7 C 0,0 UV-I 0,0 C 45 % 83 % 0 % 1017,2 hPa 0,0 l/m 9,6 km/h (2 Bft) 0 min 3,4 km/h (1 Bft)
06.03.2010 09:10 11,6 C 0,6 C 0,0 UV-I 0,0 C 45 % 83 % 0 % 1017,2 hPa 0,0 l/m 9,6 km/h (2 Bft) 0 min 14,2 km/h (3 Bft)
06.03.2010 09:12 11,6 C 0,7 C 0,0 UV-I 0,0 C 45 % 83 % 0 % 1017,2 hPa 0,0 l/m 10,0 km/h (2 Bft) 0 min 5,3 km/h (1 Bft)
06.03.2010 09:14 11,6 C 0,6 C 0,0 UV-I 0,0 C 45 % 82 % 0 % 1017,2 hPa 0,0 l/m 10,8 km/h (2 Bft) 0 min 9,9 km/h (2 Bft)
06.03.2010 09:16 11,6 C 0,7 C 0,0 UV-I 0,0 C 45 % 82 % 0 % 1017,2 hPa 0,0 l/m 10,0 km/h (2 Bft) 0 min 4,8 km/h (1 Bft)
06.03.2010 09:18 11,6 C 0,7 C 0,0 UV-I 0,0 C 45 % 82 % 0 % 1017,2 hPa 0,0 l/m 10,4 km/h (2 Bft) 0 min 8,9 km/h (2 Bft)
06.03.2010 09:20 11,6 C 0,7 C 0,0 UV-I 0,0 C 45 % 82 % 0 % 1017,2 hPa 0,0 l/m 11,2 km/h (2 Bft) 0 min 9,4 km/h (2 Bft)
06.03.2010 09:22 11,6 C 0,7 C 0,0 UV-I 0,0 C 45 % 82 % 0 % 1017,2 hPa 0,0 l/m 10,0 km/h (2 Bft) 0 min 2,4 km/h (1 Bft)
06.03.2010 09:24 11,6 C 0,6 C 0,0 UV-I 0,0 C 45 % 82 % 0 % 1017,2 hPa 0,0 l/m 9,6 km/h (2 Bft) 0 min 5,1 km/h (1 Bft)
06.03.2010 09:26 11,8 C 0,6 C 0,0 UV-I 0,0 C 45 % 82 % 0 % 1017,2 hPa 0,0 l/m 8,8 km/h (2 Bft) 0 min 7,7 km/h (2 Bft)
06.03.2010 09:28 11,8 C 0,6 C 0,0 UV-I 0,0 C 45 % 82 % 0 % 1017,2 hPa 0,0 l/m 8,8 km/h (2 Bft) 0 min 7,5 km/h (2 Bft)
06.03.2010 09:30 11,6 C 0,7 C 0,0 UV-I 0,0 C 45 % 82 % 0 % 1017,2 hPa 0,0 l/m 8,8 km/h (2 Bft) 0 min 7,2 km/h (2 Bft)
06.03.2010 09:32 11,8 C 0,7 C 0,0 UV-I 0,0 C 45 % 82 % 0 % 1018,7 hPa 0,0 l/m 7,6 km/h (2 Bft) 0 min 5,1 km/h (1 Bft)
06.03.2010 09:34 11,6 C 0,6 C 0,0 UV-I 0,0 C 45 % 82 % 0 % 1018,7 hPa 0,0 l/m 7,2 km/h (2 Bft) 0 min 2,6 km/h (1 Bft)
06.03.2010 09:36 11,6 C 0,7 C 0,0 UV-I 0,0 C 45 % 82 % 0 % 1018,7 hPa 0,0 l/m 6,8 km/h (2 Bft) 0 min 4,1 km/h (1 Bft)
06.03.2010 09:38 11,8 C 0,6 C 0,0 UV-I 0,0 C 45 % 82 % 0 % 1018,7 hPa 0,0 l/m 6,4 km/h (2 Bft) 0 min 3,1 km/h (1 Bft)
06.03.2010 09:40 11,8 C 0,7 C 0,0 UV-I 0,0 C 45 % 82 % 0 % 1018,7 hPa 0,0 l/m 4,8 km/h (1 Bft) 0 min 0,0 km/h (0 Bft)
06.03.2010 09:42 11,6 C 0,7 C 0,0 UV-I 0,0 C 45 % 82 % 0 % 1018,7 hPa 0,0 l/m 5,2 km/h (1 Bft) 0 min 7,9 km/h (2 Bft)
06.03.2010 09:44 11,8 C 0,7 C 0,0 UV-I 0,0 C 45 % 82 % 0 % 1018,7 hPa 0,0 l/m 5,6 km/h (1 Bft) 0 min 4,1 km/h (1 Bft)
06.03.2010 09:46 11,6 C 0,7 C 0,0 UV-I 0,0 C 45 % 82 % 0 % 1018,7 hPa 0,0 l/m 6,8 km/h (2 Bft) 0 min 13,0 km/h (3 Bft)
06.03.2010 09:48 11,8 C 0,6 C 0,0 UV-I 0,0 C 45 % 82 % 0 % 1018,7 hPa 0,0 l/m 8,0 km/h (2 Bft) 0 min 9,1 km/h (2 Bft)
06.03.2010 09:50 11,8 C 0,7 C 0,0 UV-I 0,0 C 45 % 82 % 0 % 1018,7 hPa 0,0 l/m 8,4 km/h (2 Bft) 0 min 4,1 km/h (1 Bft)
06.03.2010 09:52 11,8 C 0,5 C 0,0 UV-I 0,0 C 44 % 82 % 0 % 1019,3 hPa 0,0 l/m 8,4 km/h (2 Bft) 0 min 5,8 km/h (2 Bft)
06.03.2010 09:54 11,8 C 0,5 C 0,1 UV-I 0,0 C 44 % 82 % 0 % 1019,3 hPa 0,0 l/m 9,6 km/h (2 Bft) 0 min 16,8 km/h (3 Bft)
06.03.2010 09:58 11,8 C 0,7 C 0,1 UV-I 0,0 C 45 % 81 % 0 % 1019,3 hPa 0,0 l/m 9,6 km/h (2 Bft) 0 min 14,0 km/h (3 Bft)
06.03.2010 10:00 11,8 C 0,5 C 0,3 UV-I 0,0 C 44 % 81 % 0 % 1019,3 hPa 0,0 l/m 9,6 km/h (2 Bft) 0 min 5,8 km/h (2 Bft)
06.03.2010 10:02 11,8 C 0,5 C 0,3 UV-I 0,0 C 45 % 81 % 0 % 1019,3 hPa 0,0 l/m 9,6 km/h (2 Bft) 0 min 3,6 km/h (1 Bft)
06.03.2010 10:04 11,8 C 0,5 C 0,0 UV-I 0,0 C 44 % 81 % 0 % 1019,3 hPa 0,0 l/m 8,8 km/h (2 Bft) 0 min 3,8 km/h (1 Bft)
06.03.2010 10:06 11,8 C 0,6 C 0,0 UV-I 0,0 C 44 % 81 % 0 % 1019,3 hPa 0,0 l/m 7,6 km/h (2 Bft) 0 min 3,8 km/h (1 Bft)
06.03.2010 10:08 11,8 C 0,5 C 0,0 UV-I 0,0 C 44 % 81 % 0 % 1019,3 hPa 0,0 l/m 6,0 km/h (2 Bft) 0 min 4,3 km/h (1 Bft)
06.03.2010 10:10 11,8 C 0,5 C 0,0 UV-I 0,0 C 44 % 81 % 0 % 1019,3 hPa 0,0 l/m 5,6 km/h (1 Bft) 0 min 5,3 km/h (1 Bft)
06.03.2010 10:12 11,8 C 0,5 C 0,0 UV-I 0,0 C 44 % 82 % 0 % 1019,9 hPa 0,0 l/m 5,2 km/h (1 Bft) 0 min 5,5 km/h (1 Bft)
06.03.2010 10:16 11,8 C 0,5 C 0,0 UV-I 0,0 C 44 % 82 % 0 % 1019,9 hPa 0,0 l/m 6,0 km/h (2 Bft) 0 min 5,8 km/h (2 Bft)
06.03.2010 10:18 11,8 C 0,5 C 0,0 UV-I 0,0 C 44 % 81 % 0 % 1019,9 hPa 0,0 l/m 7,2 km/h (2 Bft) 0 min 6,7 km/h (2 Bft)
06.03.2010 10:20 11,8 C 0,5 C 0,0 UV-I 0,0 C 44 % 81 % 0 % 1019,9 hPa 0,0 l/m 8,8 km/h (2 Bft) 0 min 13,5 km/h (3 Bft)
06.03.2010 10:22 11,8 C 0,5 C 0,0 UV-I 0,0 C 44 % 81 % 0 % 1019,9 hPa 0,0 l/m 8,8 km/h (2 Bft) 0 min 4,6 km/h (1 Bft)
06.03.2010 10:24 11,9 C 0,4 C 0,1 UV-I 0,0 C 44 % 81 % 0 % 1019,9 hPa 0,0 l/m 8,4 km/h (2 Bft) 0 min 0,0 km/h (0 Bft)
06.03.2010 10:26 11,9 C 0,4 C 0,1 UV-I 0,0 C 44 % 81 % 0 % 1019,9 hPa 0,0 l/m 9,2 km/h (2 Bft) 0 min 8,7 km/h (2 Bft)
06.03.2010 10:28 11,9 C 0,4 C 0,1 UV-I 0,0 C 44 % 81 % 0 % 1019,9 hPa 0,0 l/m 8,8 km/h (2 Bft) 0 min 13,7 km/h (3 Bft)
06.03.2010 10:30 11,9 C 0,5 C 0,1 UV-I 0,0 C 44 % 80 % 0 % 1019,9 hPa 0,0 l/m 9,2 km/h (2 Bft) 0 min 7,7 km/h (2 Bft)
06.03.2010 10:32 11,9 C 0,4 C 0,1 UV-I 0,0 C 44 % 80 % 0 % 1020,4 hPa 0,0 l/m 7,6 km/h (2 Bft) 0 min 5,1 km/h (1 Bft)
06.03.2010 10:34 11,9 C 0,5 C 0,1 UV-I 0,0 C 44 % 80 % 0 % 1020,4 hPa 0,0 l/m 7,6 km/h (2 Bft) 0 min 4,3 km/h (1 Bft)
06.03.2010 10:36 11,9 C 0,5 C 0,1 UV-I 0,0 C 44 % 80 % 0 % 1020,4 hPa 0,0 l/m 9,2 km/h (2 Bft) 0 min 4,3 km/h (1 Bft)
06.03.2010 10:38 11,9 C 0,5 C 0,1 UV-I 0,0 C 44 % 80 % 0 % 1020,4 hPa 0,0 l/m 8,4 km/h (2 Bft) 0 min 2,9 km/h (1 Bft)
06.03.2010 10:40 11,9 C 0,5 C 0,9 UV-I 0,0 C 44 % 80 % 0 % 1020,4 hPa 0,0 l/m 6,8 km/h (2 Bft) 0 min 4,3 km/h (1 Bft)
06.03.2010 10:44 11,8 C 0,7 C 1,8 UV-I 0,7 C 44 % 80 % 20 % 1020,4 hPa 0,0 l/m 6,0 km/h (2 Bft) 0 min 4,1 km/h (1 Bft)
06.03.2010 10:46 12,0 C 0,7 C 1,8 UV-I 1,8 C 44 % 80 % 51 % 1020,4 hPa 0,0 l/m 4,4 km/h (1 Bft) 0 min 3,6 km/h (1 Bft)
06.03.2010 10:48 12,0 C 0,7 C 1,8 UV-I 2,2 C 44 % 80 % 63 % 1020,4 hPa 0,0 l/m 4,0 km/h (1 Bft) 0 min 2,6 km/h (1 Bft)
06.03.2010 10:50 12,0 C 0,8 C 1,2 UV-I 2,2 C 44 % 80 % 63 % 1020,4 hPa 0,0 l/m 4,4 km/h (1 Bft) 0 min 5,1 km/h (1 Bft)
06.03.2010 10:52 12,0 C 0,8 C 1,2 UV-I 2,1 C 44 % 80 % 60 % 1020,8 hPa 0,0 l/m 4,8 km/h (1 Bft) 0 min 4,3 km/h (1 Bft)
06.03.2010 10:54 12,0 C 0,8 C 0,6 UV-I 2,0 C 44 % 79 % 57 % 1020,8 hPa 0,0 l/m 6,4 km/h (2 Bft) 0 min 6,5 km/h (2 Bft)
06.03.2010 10:56 12,0 C 0,8 C 0,6 UV-I 1,5 C 44 % 79 % 43 % 1020,8 hPa 0,0 l/m 6,8 km/h (2 Bft) 0 min 5,1 km/h (1 Bft)
06.03.2010 11:00 12,0 C 0,8 C 0,8 UV-I 0,9 C 44 % 79 % 26 % 1020,8 hPa 0,0 l/m 7,2 km/h (2 Bft) 0 min 4,3 km/h (1 Bft)
06.03.2010 11:02 12,0 C 0,8 C 0,8 UV-I 0,8 C 44 % 79 % 23 % 1020,8 hPa 0,0 l/m 6,8 km/h (2 Bft) 0 min 3,6 km/h (1 Bft)
06.03.2010 11:04 11,9 C 0,7 C 1,4 UV-I 0,9 C 44 % 79 % 26 % 1020,8 hPa 0,0 l/m 6,0 km/h (2 Bft) 0 min 7,0 km/h (2 Bft)
06.03.2010 11:06 11,9 C 0,7 C 1,4 UV-I 0,8 C 44 % 79 % 23 % 1020,8 hPa 0,0 l/m 7,2 km/h (2 Bft) 0 min 9,9 km/h (2 Bft)
06.03.2010 11:08 11,9 C 0,7 C 1,4 UV-I 0,5 C 44 % 78 % 14 % 1020,8 hPa 0,0 l/m 8,4 km/h (2 Bft) 0 min 4,6 km/h (1 Bft)
06.03.2010 11:10 11,9 C 0,7 C 1,7 UV-I 0,7 C 43 % 79 % 20 % 1020,8 hPa 0,0 l/m 8,4 km/h (2 Bft) 0 min 4,1 km/h (1 Bft)
06.03.2010 11:12 11,9 C 0,9 C 1,7 UV-I 0,9 C 43 % 79 % 26 % 1020,8 hPa 0,1 l/m 8,0 km/h (2 Bft) 0 min 5,5 km/h (1 Bft)
06.03.2010 11:14 12,1 C 0,8 C 2,8 UV-I 1,9 C 44 % 79 % 54 % 1020,8 hPa 0,0 l/m 10,0 km/h (2 Bft) 0 min 15,4 km/h (3 Bft)
06.03.2010 11:16 12,1 C 0,9 C 2,8 UV-I 2,3 C 43 % 79 % 66 % 1020,8 hPa 0,0 l/m 9,6 km/h (2 Bft) 0 min 14,0 km/h (3 Bft)
06.03.2010 11:18 12,1 C 0,9 C 2,8 UV-I 2,4 C 43 % 78 % 69 % 1020,8 hPa 0,0 l/m 8,4 km/h (2 Bft) 0 min 5,3 km/h (1 Bft)
06.03.2010 11:20 12,1 C 1,1 C 2,3 UV-I 2,1 C 43 % 78 % 60 % 1020,8 hPa 0,0 l/m 9,2 km/h (2 Bft) 0 min 7,0 km/h (2 Bft)
06.03.2010 11:22 12,1 C 1,1 C 2,3 UV-I 2,6 C 43 % 77 % 74 % 1020,8 hPa 0,0 l/m 9,2 km/h (2 Bft) 0 min 4,1 km/h (1 Bft)
06.03.2010 11:24 12,1 C 1,1 C 2,1 UV-I 2,2 C 43 % 77 % 63 % 1020,8 hPa 0,0 l/m 9,6 km/h (2 Bft) 0 min 5,8 km/h (2 Bft)
06.03.2010 11:26 12,1 C 1,1 C 2,1 UV-I 3,3 C 43 % 77 % 94 % 1020,8 hPa 0,0 l/m 8,4 km/h (2 Bft) 2 min 9,1 km/h (2 Bft)
06.03.2010 11:28 12,1 C 1,2 C 2,1 UV-I 3,7 C 43 % 77 % 100 % 1020,8 hPa 0,0 l/m 7,6 km/h (2 Bft) 2 min 9,4 km/h (2 Bft)
06.03.2010 11:30 12,1 C 1,2 C 2,2 UV-I 3,4 C 43 % 77 % 97 % 1020,8 hPa 0,0 l/m 7,6 km/h (2 Bft) 2 min 3,8 km/h (1 Bft)
06.03.2010 11:32 12,1 C 1,2 C 2,2 UV-I 3,6 C 43 % 77 % 100 % 1022,1 hPa 0,1 l/m 6,8 km/h (2 Bft) 2 min 5,3 km/h (1 Bft)
06.03.2010 11:34 12,1 C 1,3 C 2,2 UV-I 4,0 C 43 % 77 % 100 % 1022,1 hPa 0,0 l/m 7,6 km/h (2 Bft) 2 min 5,5 km/h (1 Bft)
06.03.2010 11:36 12,1 C 1,3 C 2,2 UV-I 4,7 C 43 % 77 % 100 % 1022,1 hPa 0,0 l/m 7,6 km/h (2 Bft) 2 min 3,8 km/h (1 Bft)
06.03.2010 11:38 12,2 C 1,5 C 2,2 UV-I 4,7 C 43 % 77 % 100 % 1022,1 hPa 0,0 l/m 8,0 km/h (2 Bft) 2 min 4,8 km/h (1 Bft)
06.03.2010 11:40 12,1 C 1,5 C 4,8 UV-I 5,1 C 43 % 77 % 100 % 1022,1 hPa 0,0 l/m 8,4 km/h (2 Bft) 2 min 6,0 km/h (2 Bft)
06.03.2010 11:42 12,1 C 1,6 C 4,8 UV-I 5,5 C 43 % 77 % 100 % 1022,1 hPa 0,0 l/m 7,6 km/h (2 Bft) 2 min 6,7 km/h (2 Bft)
06.03.2010 11:44 12,2 C 1,7 C 5,8 UV-I 5,9 C 43 % 76 % 100 % 1022,1 hPa 0,0 l/m 7,6 km/h (2 Bft) 2 min 4,8 km/h (1 Bft)
06.03.2010 11:46 12,2 C 1,9 C 5,8 UV-I 6,5 C 43 % 76 % 100 % 1022,1 hPa 0,0 l/m 7,6 km/h (2 Bft) 2 min 6,0 km/h (2 Bft)
06.03.2010 11:48 12,2 C 1,9 C 5,8 UV-I 7,0 C 43 % 76 % 100 % 1022,1 hPa 0,0 l/m 7,2 km/h (2 Bft) 2 min 6,3 km/h (2 Bft)
06.03.2010 11:50 12,1 C 2,0 C 6,1 UV-I 7,3 C 43 % 76 % 100 % 1022,1 hPa 0,1 l/m 7,2 km/h (2 Bft) 2 min 4,3 km/h (1 Bft)
06.03.2010 11:52 12,2 C 2,0 C 6,1 UV-I 7,8 C 43 % 76 % 100 % 1022,4 hPa 0,0 l/m 7,6 km/h (2 Bft) 2 min 11,5 km/h (2 Bft)
06.03.2010 11:54 12,3 C 2,1 C 5,6 UV-I 7,7 C 42 % 76 % 100 % 1022,4 hPa 0,0 l/m 8,0 km/h (2 Bft) 2 min 8,9 km/h (2 Bft)
06.03.2010 11:56 12,3 C 2,1 C 5,6 UV-I 7,7 C 42 % 76 % 100 % 1022,4 hPa 0,0 l/m 8,4 km/h (2 Bft) 2 min 4,6 km/h (1 Bft)
06.03.2010 11:58 12,3 C 2,1 C 5,6 UV-I 7,6 C 42 % 75 % 100 % 1022,4 hPa 0,0 l/m 8,8 km/h (2 Bft) 2 min 4,6 km/h (1 Bft)
06.03.2010 12:00 12,2 C 2,3 C 6,5 UV-I 7,4 C 42 % 75 % 100 % 1022,4 hPa 0,0 l/m 8,8 km/h (2 Bft) 2 min 4,1 km/h (1 Bft)
06.03.2010 12:02 12,4 C 2,3 C 6,5 UV-I 7,5 C 42 % 74 % 100 % 1022,4 hPa 0,0 l/m 9,6 km/h (2 Bft) 2 min 6,7 km/h (2 Bft)
06.03.2010 12:04 12,4 C 2,3 C 6,5 UV-I 7,5 C 42 % 74 % 100 % 1022,4 hPa 0,0 l/m 9,6 km/h (2 Bft) 2 min 6,7 km/h (2 Bft)
06.03.2010 12:06 12,4 C 2,4 C 6,5 UV-I 7,6 C 42 % 74 % 100 % 1022,4 hPa 0,0 l/m 8,4 km/h (2 Bft) 2 min 6,5 km/h (2 Bft)
06.03.2010 12:08 12,4 C 2,5 C 6,5 UV-I 7,5 C 42 % 73 % 100 % 1022,4 hPa 0,0 l/m 7,6 km/h (2 Bft) 2 min 6,5 km/h (2 Bft)
06.03.2010 12:10 12,4 C 2,5 C 5,1 UV-I 7,0 C 42 % 72 % 100 % 1022,4 hPa 0,0 l/m 7,6 km/h (2 Bft) 2 min 3,4 km/h (1 Bft)
06.03.2010 12:12 12,3 C 2,6 C 5,1 UV-I 6,2 C 42 % 72 % 100 % 1022,5 hPa 0,0 l/m 7,6 km/h (2 Bft) 2 min 6,7 km/h (2 Bft)
06.03.2010 12:14 12,3 C 2,7 C 5,5 UV-I 5,7 C 42 % 72 % 100 % 1022,5 hPa 0,0 l/m 7,6 km/h (2 Bft) 2 min 3,6 km/h (1 Bft)
06.03.2010 12:16 12,3 C 2,7 C 5,5 UV-I 6,3 C 42 % 73 % 100 % 1022,5 hPa 0,0 l/m 8,0 km/h (2 Bft) 2 min 7,5 km/h (2 Bft)
06.03.2010 12:18 12,4 C 2,8 C 5,5 UV-I 6,4 C 42 % 72 % 100 % 1022,5 hPa 0,0 l/m 8,8 km/h (2 Bft) 2 min 16,4 km/h (3 Bft)
06.03.2010 12:20 12,4 C 2,7 C 5,8 UV-I 5,7 C 41 % 71 % 100 % 1022,5 hPa 0,0 l/m 8,8 km/h (2 Bft) 2 min 5,5 km/h (1 Bft)
06.03.2010 12:22 12,4 C 2,6 C 5,8 UV-I 4,9 C 41 % 71 % 100 % 1022,5 hPa 0,0 l/m 9,6 km/h (2 Bft) 2 min 8,9 km/h (2 Bft)
06.03.2010 12:24 12,4 C 2,4 C 1,2 UV-I 3,3 C 41 % 70 % 94 % 1022,5 hPa 0,0 l/m 11,2 km/h (2 Bft) 2 min 14,9 km/h (3 Bft)
06.03.2010 12:26 12,4 C 2,3 C 1,2 UV-I 2,0 C 41 % 70 % 57 % 1022,5 hPa 0,0 l/m 12,0 km/h (2 Bft) 0 min 8,7 km/h (2 Bft)
06.03.2010 12:28 12,4 C 2,3 C 1,2 UV-I 1,1 C 41 % 70 % 31 % 1022,5 hPa 0,0 l/m 12,0 km/h (2 Bft) 0 min 14,9 km/h (3 Bft)
06.03.2010 12:30 12,4 C 2,3 C 1,2 UV-I 1,3 C 41 % 71 % 37 % 1022,5 hPa 0,0 l/m 10,8 km/h (2 Bft) 0 min 5,1 km/h (1 Bft)
06.03.2010 12:32 12,4 C 2,3 C 1,2 UV-I 2,1 C 41 % 71 % 60 % 1023,0 hPa 0,0 l/m 10,8 km/h (2 Bft) 0 min 5,5 km/h (1 Bft)
06.03.2010 12:34 12,6 C 2,4 C 8,1 UV-I 3,3 C 41 % 71 % 94 % 1023,0 hPa 0,0 l/m 9,2 km/h (2 Bft) 2 min 5,8 km/h (2 Bft)
06.03.2010 12:36 12,6 C 2,4 C 8,1 UV-I 4,5 C 41 % 71 % 100 % 1023,0 hPa 0,0 l/m 7,2 km/h (2 Bft) 2 min 4,8 km/h (1 Bft)
06.03.2010 12:40 12,6 C 2,8 C 7,5 UV-I 5,8 C 41 % 71 % 100 % 1023,0 hPa 0,0 l/m 6,0 km/h (2 Bft) 2 min 3,6 km/h (1 Bft)
06.03.2010 12:42 12,7 C 2,8 C 7,5 UV-I 5,5 C 41 % 71 % 100 % 1023,0 hPa 0,0 l/m 5,6 km/h (1 Bft) 2 min 7,2 km/h (2 Bft)
06.03.2010 12:46 12,7 C 2,7 C 2,7 UV-I 4,0 C 41 % 70 % 100 % 1023,0 hPa 0,0 l/m 6,8 km/h (2 Bft) 2 min 9,1 km/h (2 Bft)
06.03.2010 12:48 12,7 C 2,7 C 2,7 UV-I 3,3 C 41 % 69 % 94 % 1023,0 hPa 0,0 l/m 7,2 km/h (2 Bft) 2 min 4,3 km/h (1 Bft)
06.03.2010 12:50 12,6 C 2,5 C 2,4 UV-I 3,1 C 41 % 69 % 89 % 1023,0 hPa 0,0 l/m 6,8 km/h (2 Bft) 2 min 5,1 km/h (1 Bft)
06.03.2010 12:52 12,6 C 2,7 C 2,4 UV-I 2,5 C 41 % 70 % 71 % 1023,5 hPa 0,0 l/m 6,8 km/h (2 Bft) 0 min 2,6 km/h (1 Bft)
06.03.2010 12:54 12,8 C 2,7 C 4,5 UV-I 2,6 C 41 % 70 % 74 % 1023,5 hPa 0,0 l/m 5,6 km/h (1 Bft) 0 min 3,4 km/h (1 Bft)
06.03.2010 12:56 12,8 C 2,6 C 4,5 UV-I 3,3 C 41 % 70 % 94 % 1023,5 hPa 0,0 l/m 6,4 km/h (2 Bft) 2 min 9,6 km/h (2 Bft)
06.03.2010 13:00 12,8 C 2,6 C 2,2 UV-I 2,5 C 40 % 69 % 71 % 1023,5 hPa 0,0 l/m 6,4 km/h (2 Bft) 0 min 8,7 km/h (2 Bft)
06.03.2010 13:02 12,8 C 2,5 C 2,2 UV-I 2,2 C 40 % 69 % 63 % 1023,5 hPa 0,0 l/m 6,4 km/h (2 Bft) 0 min 2,9 km/h (1 Bft)
06.03.2010 13:04 12,8 C 2,5 C 3,0 UV-I 1,7 C 40 % 70 % 49 % 1023,5 hPa 0,0 l/m 6,8 km/h (2 Bft) 0 min 4,1 km/h (1 Bft)
06.03.2010 13:06 12,8 C 2,5 C 3,0 UV-I 2,2 C 40 % 69 % 63 % 1023,5 hPa 0,0 l/m 6,4 km/h (2 Bft) 0 min 3,8 km/h (1 Bft)
06.03.2010 13:08 12,9 C 2,6 C 3,0 UV-I 2,6 C 40 % 68 % 74 % 1023,5 hPa 0,0 l/m 7,2 km/h (2 Bft) 0 min 6,7 km/h (2 Bft)
06.03.2010 13:10 12,8 C 2,5 C 4,8 UV-I 2,8 C 40 % 68 % 80 % 1023,5 hPa 0,0 l/m 6,8 km/h (2 Bft) 0 min 3,6 km/h (1 Bft)
06.03.2010 13:12 12,8 C 2,5 C 4,8 UV-I 2,6 C 40 % 68 % 74 % 1023,5 hPa 0,0 l/m 7,6 km/h (2 Bft) 0 min 3,4 km/h (1 Bft)
06.03.2010 13:14 12,8 C 2,5 C 2,5 UV-I 2,1 C 40 % 68 % 60 % 1023,5 hPa 0,0 l/m 7,6 km/h (2 Bft) 0 min 3,1 km/h (1 Bft)
06.03.2010 13:16 12,8 C 2,4 C 2,5 UV-I 1,7 C 40 % 67 % 49 % 1023,5 hPa 0,0 l/m 7,6 km/h (2 Bft) 0 min 4,1 km/h (1 Bft)
06.03.2010 13:18 12,8 C 2,4 C 2,5 UV-I 2,0 C 40 % 67 % 57 % 1023,5 hPa 0,0 l/m 7,6 km/h (2 Bft) 0 min 6,5 km/h (2 Bft)
06.03.2010 13:20 13,0 C 2,4 C 3,5 UV-I 1,7 C 40 % 66 % 49 % 1023,5 hPa 0,0 l/m 8,0 km/h (2 Bft) 0 min 6,0 km/h (2 Bft)
06.03.2010 13:22 13,0 C 2,5 C 3,5 UV-I 2,2 C 40 % 66 % 63 % 1023,5 hPa 0,0 l/m 7,6 km/h (2 Bft) 0 min 6,0 km/h (2 Bft)
06.03.2010 13:24 13,0 C 2,4 C 6,6 UV-I 3,0 C 40 % 67 % 86 % 1023,5 hPa 0,0 l/m 7,6 km/h (2 Bft) 2 min 4,1 km/h (1 Bft)
06.03.2010 13:26 13,1 C 2,7 C 6,6 UV-I 3,9 C 40 % 67 % 100 % 1023,5 hPa 0,0 l/m 7,6 km/h (2 Bft) 2 min 7,0 km/h (2 Bft)
06.03.2010 13:28 13,2 C 2,8 C 6,6 UV-I 4,5 C 40 % 66 % 100 % 1023,5 hPa 0,0 l/m 7,6 km/h (2 Bft) 2 min 5,3 km/h (1 Bft)
06.03.2010 13:32 13,2 C 2,8 C 6,0 UV-I 4,6 C 40 % 66 % 100 % 1025,1 hPa 0,0 l/m 6,4 km/h (2 Bft) 2 min 4,3 km/h (1 Bft)
06.03.2010 13:34 13,1 C 2,8 C 4,5 UV-I 4,5 C 39 % 65 % 100 % 1025,1 hPa 0,0 l/m 6,8 km/h (2 Bft) 2 min 15,2 km/h (3 Bft)
06.03.2010 13:36 13,3 C 2,8 C 4,5 UV-I 5,0 C 39 % 65 % 100 % 1025,1 hPa 0,0 l/m 8,8 km/h (2 Bft) 2 min 6,3 km/h (2 Bft)
06.03.2010 13:38 13,2 C 2,9 C 4,5 UV-I 5,3 C 39 % 65 % 100 % 1025,1 hPa 0,0 l/m 9,6 km/h (2 Bft) 2 min 5,1 km/h (1 Bft)
06.03.2010 13:40 13,2 C 2,8 C 5,4 UV-I 5,3 C 39 % 66 % 100 % 1025,1 hPa 0,0 l/m 9,6 km/h (2 Bft) 2 min 5,8 km/h (2 Bft)
06.03.2010 13:42 13,2 C 2,8 C 5,4 UV-I 4,1 C 39 % 65 % 100 % 1025,1 hPa 0,0 l/m 10,4 km/h (2 Bft) 2 min 4,1 km/h (1 Bft)
06.03.2010 13:44 13,4 C 2,8 C 1,6 UV-I 3,1 C 39 % 64 % 89 % 1025,1 hPa 0,0 l/m 10,4 km/h (2 Bft) 2 min 4,6 km/h (1 Bft)
06.03.2010 13:48 13,4 C 2,7 C 1,6 UV-I 3,4 C 38 % 65 % 97 % 1025,1 hPa 0,0 l/m 6,4 km/h (2 Bft) 2 min 2,9 km/h (1 Bft)
06.03.2010 13:50 13,4 C 2,8 C 6,0 UV-I 3,6 C 38 % 65 % 100 % 1025,1 hPa 0,0 l/m 6,0 km/h (2 Bft) 2 min 5,8 km/h (2 Bft)
06.03.2010 13:52 13,5 C 2,9 C 6,0 UV-I 4,5 C 38 % 65 % 100 % 1027,1 hPa 0,0 l/m 5,6 km/h (1 Bft) 2 min 7,0 km/h (2 Bft)
06.03.2010 13:54 13,6 C 3,1 C 4,9 UV-I 4,9 C 38 % 65 % 100 % 1027,1 hPa 0,0 l/m 6,0 km/h (2 Bft) 2 min 5,5 km/h (1 Bft)
06.03.2010 13:56 13,6 C 3,1 C 4,9 UV-I 4,9 C 38 % 64 % 100 % 1027,1 hPa 0,0 l/m 5,6 km/h (1 Bft) 2 min 4,3 km/h (1 Bft)
06.03.2010 13:58 13,6 C 3,2 C 4,9 UV-I 5,2 C 38 % 64 % 100 % 1027,1 hPa 0,0 l/m 5,6 km/h (1 Bft) 2 min 3,1 km/h (1 Bft)
06.03.2010 14:00 13,7 C 3,2 C 7,8 UV-I 5,8 C 38 % 63 % 100 % 1027,1 hPa 0,0 l/m 6,4 km/h (2 Bft) 2 min 5,1 km/h (1 Bft)
06.03.2010 14:02 13,6 C 3,2 C 7,8 UV-I 6,2 C 38 % 63 % 100 % 1027,1 hPa 0,0 l/m 6,0 km/h (2 Bft) 2 min 3,4 km/h (1 Bft)
06.03.2010 14:04 13,8 C 3,3 C 4,8 UV-I 5,7 C 37 % 63 % 100 % 1027,1 hPa 0,0 l/m 5,6 km/h (1 Bft) 2 min 5,5 km/h (1 Bft)
06.03.2010 14:06 13,8 C 3,3 C 4,8 UV-I 5,0 C 37 % 63 % 100 % 1027,1 hPa 0,0 l/m 4,8 km/h (1 Bft) 2 min 0,0 km/h (0 Bft)
06.03.2010 14:08 13,9 C 3,4 C 4,8 UV-I 4,7 C 37 % 63 % 100 % 1027,1 hPa 0,0 l/m 5,2 km/h (1 Bft) 2 min 11,1 km/h (2 Bft)
06.03.2010 14:10 13,8 C 3,5 C 6,3 UV-I 5,3 C 37 % 63 % 100 % 1027,1 hPa 0,0 l/m 5,2 km/h (1 Bft) 2 min 4,3 km/h (1 Bft)
06.03.2010 14:16 14,1 C 3,6 C 5,2 UV-I 5,5 C 37 % 62 % 100 % 1028,8 hPa 0,0 l/m 4,4 km/h (1 Bft) 2 min 3,8 km/h (1 Bft)
06.03.2010 14:18 14,2 C 3,6 C 5,2 UV-I 5,3 C 37 % 63 % 100 % 1028,8 hPa 0,0 l/m 5,2 km/h (1 Bft) 2 min 4,1 km/h (1 Bft)
06.03.2010 14:20 14,2 C 3,7 C 6,1 UV-I 5,6 C 37 % 62 % 100 % 1028,8 hPa 0,0 l/m 4,4 km/h (1 Bft) 2 min 4,3 km/h (1 Bft)
06.03.2010 14:22 14,3 C 3,8 C 6,1 UV-I 6,2 C 36 % 62 % 100 % 1028,8 hPa 0,0 l/m 4,0 km/h (1 Bft) 2 min 2,4 km/h (1 Bft)
06.03.2010 14:24 14,4 C 3,9 C 7,5 UV-I 6,5 C 36 % 61 % 100 % 1028,8 hPa 0,0 l/m 4,4 km/h (1 Bft) 2 min 5,1 km/h (1 Bft)
06.03.2010 14:26 14,4 C 4,0 C 7,5 UV-I 6,6 C 36 % 60 % 100 % 1028,8 hPa 0,0 l/m 5,2 km/h (1 Bft) 2 min 6,3 km/h (2 Bft)
06.03.2010 14:28 14,3 C 4,0 C 7,5 UV-I 6,6 C 36 % 60 % 100 % 1028,8 hPa 0,0 l/m 5,6 km/h (1 Bft) 2 min 6,5 km/h (2 Bft)
06.03.2010 14:30 14,4 C 4,0 C 7,0 UV-I 6,5 C 36 % 60 % 100 % 1028,8 hPa 0,0 l/m 6,0 km/h (2 Bft) 2 min 5,3 km/h (1 Bft)
06.03.2010 14:32 14,6 C 4,0 C 7,0 UV-I 6,3 C 36 % 60 % 100 % 1029,4 hPa 0,0 l/m 6,4 km/h (2 Bft) 2 min 7,2 km/h (2 Bft)
06.03.2010 14:36 14,8 C 4,1 C 7,6 UV-I 6,5 C 35 % 60 % 100 % 1029,4 hPa 0,0 l/m 6,0 km/h (2 Bft) 2 min 5,5 km/h (1 Bft)
06.03.2010 14:38 14,9 C 4,3 C 7,6 UV-I 6,5 C 35 % 59 % 100 % 1029,4 hPa 0,0 l/m 6,4 km/h (2 Bft) 2 min 9,4 km/h (2 Bft)
06.03.2010 14:40 14,8 C 4,2 C 7,4 UV-I 6,6 C 35 % 59 % 100 % 1029,4 hPa 0,0 l/m 6,0 km/h (2 Bft) 2 min 6,0 km/h (2 Bft)
06.03.2010 14:42 15,0 C 4,2 C 7,4 UV-I 6,1 C 35 % 59 % 100 % 1029,4 hPa 0,0 l/m 6,4 km/h (2 Bft) 2 min 7,2 km/h (2 Bft)
06.03.2010 14:44 14,9 C 4,3 C 6,1 UV-I 5,8 C 35 % 58 % 100 % 1029,4 hPa 0,0 l/m 6,8 km/h (2 Bft) 2 min 3,8 km/h (1 Bft)
06.03.2010 14:48 15,2 C 4,3 C 6,1 UV-I 5,9 C 34 % 56 % 100 % 1029,4 hPa 0,0 l/m 8,4 km/h (2 Bft) 2 min 13,7 km/h (3 Bft)
06.03.2010 14:52 15,2 C 4,0 C 7,0 UV-I 5,4 C 34 % 56 % 100 % 1029,3 hPa 0,0 l/m 9,6 km/h (2 Bft) 2 min 3,4 km/h (1 Bft)
06.03.2010 14:54 15,4 C 4,0 C 6,4 UV-I 5,3 C 34 % 57 % 100 % 1029,3 hPa 0,0 l/m 9,2 km/h (2 Bft) 2 min 4,6 km/h (1 Bft)
06.03.2010 14:56 15,4 C 4,1 C 6,4 UV-I 5,3 C 34 % 57 % 100 % 1029,3 hPa 0,0 l/m 8,8 km/h (2 Bft) 2 min 4,1 km/h (1 Bft)
06.03.2010 14:58 15,4 C 4,3 C 6,4 UV-I 5,5 C 34 % 57 % 100 % 1029,3 hPa 0,0 l/m 7,6 km/h (2 Bft) 2 min 3,8 km/h (1 Bft)
06.03.2010 15:00 15,6 C 4,4 C 6,2 UV-I 5,8 C 34 % 58 % 100 % 1029,3 hPa 0,0 l/m 5,6 km/h (1 Bft) 2 min 5,3 km/h (1 Bft)
06.03.2010 15:02 15,6 C 4,5 C 6,2 UV-I 5,8 C 34 % 57 % 100 % 1029,3 hPa 0,0 l/m 4,8 km/h (1 Bft) 2 min 3,8 km/h (1 Bft)
06.03.2010 15:04 15,7 C 4,5 C 5,9 UV-I 5,8 C 33 % 56 % 100 % 1029,3 hPa 0,0 l/m 4,8 km/h (1 Bft) 2 min 6,5 km/h (2 Bft)
06.03.2010 15:06 15,6 C 4,5 C 5,9 UV-I 5,8 C 33 % 56 % 100 % 1029,3 hPa 0,0 l/m 5,2 km/h (1 Bft) 2 min 5,8 km/h (2 Bft)
06.03.2010 15:08 15,8 C 4,5 C 5,9 UV-I 5,8 C 33 % 55 % 100 % 1029,3 hPa 0,0 l/m 5,2 km/h (1 Bft) 2 min 2,6 km/h (1 Bft)
06.03.2010 15:14 16,0 C 4,5 C 5,3 UV-I 5,8 C 33 % 54 % 100 % 1028,5 hPa 0,0 l/m 7,2 km/h (2 Bft) 2 min 26,7 km/h (4 Bft)
06.03.2010 15:16 16,0 C 4,5 C 5,3 UV-I 5,6 C 33 % 55 % 100 % 1028,5 hPa 0,0 l/m 7,6 km/h (2 Bft) 2 min 4,8 km/h (1 Bft)
06.03.2010 15:18 15,9 C 4,5 C 5,3 UV-I 5,5 C 33 % 55 % 100 % 1028,5 hPa 0,0 l/m 8,0 km/h (2 Bft) 2 min 13,0 km/h (3 Bft)
06.03.2010 15:22 16,1 C 4,4 C 5,0 UV-I 5,3 C 32 % 52 % 100 % 1028,5 hPa 0,0 l/m 9,6 km/h (2 Bft) 2 min 7,5 km/h (2 Bft)
06.03.2010 15:24 16,2 C 4,4 C 4,7 UV-I 5,3 C 32 % 52 % 100 % 1028,5 hPa 0,0 l/m 8,4 km/h (2 Bft) 2 min 5,1 km/h (1 Bft)
06.03.2010 15:26 16,2 C 4,5 C 4,7 UV-I 5,0 C 32 % 51 % 100 % 1028,5 hPa 0,0 l/m 8,0 km/h (2 Bft) 2 min 5,5 km/h (1 Bft)
06.03.2010 15:28 16,3 C 4,4 C 4,7 UV-I 5,1 C 32 % 51 % 100 % 1028,5 hPa 0,0 l/m 7,6 km/h (2 Bft) 2 min 4,3 km/h (1 Bft)
06.03.2010 15:30 16,3 C 4,5 C 4,7 UV-I 5,2 C 32 % 52 % 100 % 1028,5 hPa 0,0 l/m 7,2 km/h (2 Bft) 2 min 4,3 km/h (1 Bft)
06.03.2010 15:32 16,2 C 4,6 C 4,7 UV-I 5,3 C 32 % 52 % 100 % 1030,1 hPa 0,0 l/m 6,0 km/h (2 Bft) 2 min 2,4 km/h (1 Bft)
06.03.2010 15:34 16,2 C 4,8 C 4,0 UV-I 5,4 C 32 % 52 % 100 % 1030,1 hPa 0,0 l/m 4,4 km/h (1 Bft) 2 min 3,1 km/h (1 Bft)
06.03.2010 15:36 16,4 C 4,8 C 4,0 UV-I 5,6 C 32 % 51 % 100 % 1030,1 hPa 0,0 l/m 4,4 km/h (1 Bft) 2 min 2,9 km/h (1 Bft)
06.03.2010 15:38 16,4 C 4,8 C 4,0 UV-I 5,8 C 32 % 52 % 100 % 1030,1 hPa 0,0 l/m 4,0 km/h (1 Bft) 2 min 5,5 km/h (1 Bft)
06.03.2010 15:40 16,4 C 4,8 C 3,8 UV-I 6,0 C 32 % 52 % 100 % 1030,1 hPa 0,0 l/m 4,0 km/h (1 Bft) 2 min 5,3 km/h (1 Bft)
06.03.2010 15:42 16,5 C 4,9 C 3,8 UV-I 5,9 C 32 % 52 % 100 % 1030,1 hPa 0,0 l/m 4,0 km/h (1 Bft) 2 min 5,3 km/h (1 Bft)
06.03.2010 15:46 16,6 C 4,8 C 2,8 UV-I 5,4 C 32 % 51 % 100 % 1030,1 hPa 0,0 l/m 5,6 km/h (1 Bft) 2 min 10,1 km/h (2 Bft)
06.03.2010 15:48 16,5 C 4,7 C 2,8 UV-I 4,9 C 31 % 50 % 100 % 1030,1 hPa 0,0 l/m 6,4 km/h (2 Bft) 2 min 8,4 km/h (2 Bft)
06.03.2010 15:50 16,5 C 4,7 C 2,0 UV-I 4,2 C 31 % 49 % 100 % 1030,1 hPa 0,0 l/m 6,4 km/h (2 Bft) 2 min 4,8 km/h (1 Bft)
06.03.2010 15:52 16,5 C 4,5 C 2,0 UV-I 4,0 C 32 % 49 % 100 % 1028,9 hPa 0,0 l/m 6,4 km/h (2 Bft) 2 min 2,9 km/h (1 Bft)
06.03.2010 15:54 16,5 C 4,5 C 2,0 UV-I 3,7 C 31 % 49 % 100 % 1028,9 hPa 0,0 l/m 6,8 km/h (2 Bft) 2 min 4,3 km/h (1 Bft)
06.03.2010 15:56 16,6 C 4,6 C 2,0 UV-I 3,7 C 31 % 49 % 100 % 1028,9 hPa 0,0 l/m 6,4 km/h (2 Bft) 2 min 5,1 km/h (1 Bft)
06.03.2010 15:58 16,6 C 4,7 C 2,0 UV-I 3,8 C 31 % 49 % 100 % 1028,9 hPa 0,0 l/m 6,4 km/h (2 Bft) 2 min 6,7 km/h (2 Bft)
06.03.2010 16:02 16,6 C 4,7 C 2,5 UV-I 4,2 C 31 % 50 % 100 % 1028,9 hPa 0,0 l/m 6,0 km/h (2 Bft) 2 min 5,5 km/h (1 Bft)
06.03.2010 16:04 16,6 C 4,7 C 2,3 UV-I 4,2 C 31 % 49 % 100 % 1028,9 hPa 0,0 l/m 6,8 km/h (2 Bft) 2 min 4,8 km/h (1 Bft)
06.03.2010 16:06 16,6 C 4,7 C 2,3 UV-I 4,3 C 31 % 50 % 100 % 1028,9 hPa 0,0 l/m 6,4 km/h (2 Bft) 2 min 2,4 km/h (1 Bft)
06.03.2010 16:08 16,6 C 4,7 C 2,3 UV-I 4,3 C 31 % 50 % 100 % 1028,9 hPa 0,0 l/m 6,8 km/h (2 Bft) 2 min 4,1 km/h (1 Bft)
06.03.2010 16:10 16,6 C 4,6 C 1,8 UV-I 4,5 C 31 % 50 % 100 % 1028,9 hPa 0,0 l/m 6,8 km/h (2 Bft) 2 min 5,1 km/h (1 Bft)
06.03.2010 16:12 16,6 C 4,7 C 1,8 UV-I 4,5 C 31 % 49 % 100 % 1028,2 hPa 0,0 l/m 7,2 km/h (2 Bft) 2 min 7,2 km/h (2 Bft)
06.03.2010 16:14 16,6 C 4,7 C 1,6 UV-I 4,5 C 31 % 49 % 100 % 1028,2 hPa 0,0 l/m 6,8 km/h (2 Bft) 2 min 7,5 km/h (2 Bft)
06.03.2010 16:16 16,6 C 4,6 C 1,6 UV-I 4,6 C 31 % 48 % 100 % 1028,2 hPa 0,0 l/m 6,4 km/h (2 Bft) 2 min 4,3 km/h (1 Bft)
06.03.2010 16:18 16,6 C 4,7 C 1,6 UV-I 4,5 C 31 % 48 % 100 % 1028,2 hPa 0,0 l/m 6,0 km/h (2 Bft) 2 min 4,6 km/h (1 Bft)
06.03.2010 16:20 16,6 C 4,7 C 1,4 UV-I 4,5 C 31 % 48 % 100 % 1028,2 hPa 0,0 l/m 6,0 km/h (2 Bft) 2 min 3,8 km/h (1 Bft)
06.03.2010 16:22 16,6 C 4,7 C 1,4 UV-I 4,5 C 31 % 49 % 100 % 1028,2 hPa 0,0 l/m 5,6 km/h (1 Bft) 2 min 0,0 km/h (0 Bft)
06.03.2010 16:24 16,6 C 4,7 C 1,3 UV-I 4,6 C 31 % 49 % 100 % 1028,2 hPa 0,0 l/m 4,8 km/h (1 Bft) 2 min 4,8 km/h (1 Bft)
06.03.2010 16:26 16,6 C 4,7 C 1,3 UV-I 4,7 C 31 % 49 % 100 % 1028,2 hPa 0,0 l/m 4,4 km/h (1 Bft) 2 min 2,9 km/h (1 Bft)
06.03.2010 16:28 16,6 C 4,7 C 1,3 UV-I 4,3 C 31 % 49 % 100 % 1028,2 hPa 0,0 l/m 4,0 km/h (1 Bft) 2 min 2,9 km/h (1 Bft)
06.03.2010 16:30 16,6 C 4,7 C 1,2 UV-I 4,2 C 31 % 50 % 100 % 1028,2 hPa 0,0 l/m 4,0 km/h (1 Bft) 2 min 5,3 km/h (1 Bft)
06.03.2010 16:34 16,6 C 4,7 C 0,4 UV-I 3,7 C 31 % 50 % 100 % 1027,9 hPa 0,0 l/m 4,8 km/h (1 Bft) 2 min 5,3 km/h (1 Bft)
06.03.2010 16:36 16,6 C 4,5 C 0,4 UV-I 3,5 C 31 % 50 % 100 % 1027,9 hPa 0,0 l/m 4,8 km/h (1 Bft) 2 min 3,8 km/h (1 Bft)
06.03.2010 16:38 16,6 C 4,3 C 0,4 UV-I 3,0 C 31 % 49 % 86 % 1027,9 hPa 0,0 l/m 6,0 km/h (2 Bft) 2 min 8,4 km/h (2 Bft)
06.03.2010 16:40 16,5 C 4,3 C 0,8 UV-I 2,3 C 31 % 49 % 66 % 1027,9 hPa 0,0 l/m 6,0 km/h (2 Bft) 2 min 3,8 km/h (1 Bft)
06.03.2010 16:42 16,5 C 4,1 C 0,8 UV-I 2,5 C 31 % 49 % 71 % 1027,9 hPa 0,0 l/m 6,0 km/h (2 Bft) 2 min 2,9 km/h (1 Bft)
06.03.2010 16:44 16,5 C 4,3 C 0,0 UV-I 2,3 C 31 % 50 % 66 % 1027,9 hPa 0,0 l/m 6,0 km/h (2 Bft) 2 min 2,6 km/h (1 Bft)
06.03.2010 16:46 16,4 C 4,3 C 0,0 UV-I 2,6 C 31 % 50 % 74 % 1027,9 hPa 0,0 l/m 5,2 km/h (1 Bft) 2 min 3,6 km/h (1 Bft)
06.03.2010 16:48 16,4 C 4,3 C 0,0 UV-I 2,9 C 31 % 50 % 83 % 1027,9 hPa 0,0 l/m 4,4 km/h (1 Bft) 2 min 2,6 km/h (1 Bft)
06.03.2010 16:50 16,4 C 4,3 C 0,7 UV-I 3,2 C 31 % 50 % 91 % 1027,9 hPa 0,0 l/m 4,4 km/h (1 Bft) 2 min 4,3 km/h (1 Bft)
06.03.2010 16:52 16,4 C 4,3 C 0,7 UV-I 3,0 C 31 % 50 % 86 % 1027,6 hPa 0,0 l/m 3,6 km/h (1 Bft) 2 min 3,8 km/h (1 Bft)
06.03.2010 16:54 16,4 C 4,1 C 0,5 UV-I 2,4 C 31 % 51 % 69 % 1027,6 hPa 0,0 l/m 4,0 km/h (1 Bft) 2 min 4,1 km/h (1 Bft)
06.03.2010 16:56 16,4 C 3,9 C 0,5 UV-I 1,7 C 31 % 50 % 49 % 1027,6 hPa 0,0 l/m 4,8 km/h (1 Bft) 0 min 5,3 km/h (1 Bft)
06.03.2010 16:58 16,4 C 3,7 C 0,5 UV-I 1,3 C 31 % 51 % 37 % 1027,6 hPa 0,0 l/m 5,6 km/h (1 Bft) 0 min 5,3 km/h (1 Bft)
06.03.2010 17:00 16,3 C 3,6 C 0,5 UV-I 0,5 C 31 % 52 % 14 % 1027,6 hPa 0,0 l/m 6,0 km/h (2 Bft) 0 min 4,3 km/h (1 Bft)
06.03.2010 17:04 16,2 C 3,4 C 0,4 UV-I 0,6 C 31 % 53 % 17 % 1027,6 hPa 0,0 l/m 6,0 km/h (2 Bft) 0 min 3,8 km/h (1 Bft)
06.03.2010 17:06 16,2 C 3,5 C 0,4 UV-I 1,1 C 31 % 53 % 31 % 1027,6 hPa 0,0 l/m 5,2 km/h (1 Bft) 0 min 0,0 km/h (0 Bft)
06.03.2010 17:08 16,2 C 3,5 C 0,4 UV-I 1,3 C 31 % 53 % 37 % 1027,6 hPa 0,0 l/m 4,8 km/h (1 Bft) 0 min 4,8 km/h (1 Bft)
06.03.2010 17:10 16,1 C 3,5 C 0,1 UV-I 1,2 C 31 % 53 % 34 % 1027,6 hPa 0,0 l/m 4,8 km/h (1 Bft) 0 min 5,3 km/h (1 Bft)
06.03.2010 17:12 15,9 C 3,5 C 0,1 UV-I 1,0 C 31 % 52 % 29 % 1026,8 hPa 0,0 l/m 5,2 km/h (1 Bft) 0 min 4,6 km/h (1 Bft)
06.03.2010 17:14 15,9 C 3,3 C 0,2 UV-I 1,0 C 31 % 52 % 29 % 1026,8 hPa 0,0 l/m 5,6 km/h (1 Bft) 0 min 3,4 km/h (1 Bft)
06.03.2010 17:18 16,0 C 3,2 C 0,2 UV-I 1,0 C 31 % 53 % 29 % 1026,8 hPa 0,0 l/m 5,2 km/h (1 Bft) 0 min 4,1 km/h (1 Bft)
06.03.2010 17:20 15,9 C 3,1 C 0,1 UV-I 1,1 C 31 % 53 % 31 % 1026,8 hPa 0,0 l/m 5,6 km/h (1 Bft) 0 min 4,1 km/h (1 Bft)
06.03.2010 17:22 15,8 C 3,1 C 0,1 UV-I 1,2 C 31 % 53 % 34 % 1026,8 hPa 0,0 l/m 5,2 km/h (1 Bft) 0 min 3,1 km/h (1 Bft)
06.03.2010 17:24 15,8 C 3,1 C 0,0 UV-I 1,3 C 31 % 53 % 37 % 1026,8 hPa 0,0 l/m 4,8 km/h (1 Bft) 2 min 3,6 km/h (1 Bft)
06.03.2010 17:28 15,7 C 3,1 C 0,0 UV-I 0,9 C 32 % 55 % 26 % 1026,8 hPa 0,0 l/m 4,4 km/h (1 Bft) 0 min 5,3 km/h (1 Bft)
06.03.2010 17:32 15,6 C 2,9 C 0,0 UV-I 0,6 C 32 % 55 % 17 % 1026,7 hPa 0,0 l/m 4,4 km/h (1 Bft) 0 min 4,3 km/h (1 Bft)
06.03.2010 17:34 15,6 C 2,8 C 0,1 UV-I 0,5 C 32 % 55 % 14 % 1026,7 hPa 0,0 l/m 4,4 km/h (1 Bft) 0 min 10,3 km/h (2 Bft)
06.03.2010 17:36 15,5 C 2,9 C 0,1 UV-I 0,3 C 32 % 55 % 9 % 1026,7 hPa 0,0 l/m 4,8 km/h (1 Bft) 0 min 5,1 km/h (1 Bft)
06.03.2010 17:38 15,3 C 2,8 C 0,1 UV-I 0,0 C 32 % 55 % 0 % 1026,7 hPa 0,0 l/m 5,2 km/h (1 Bft) 0 min 3,6 km/h (1 Bft)
06.03.2010 17:40 15,4 C 2,7 C 0,0 UV-I 0,0 C 32 % 55 % 0 % 1026,7 hPa 0,0 l/m 5,6 km/h (1 Bft) 0 min 5,5 km/h (1 Bft)
06.03.2010 17:42 15,2 C 2,7 C 0,0 UV-I 0,0 C 32 % 55 % 0 % 1026,7 hPa 0,0 l/m 6,0 km/h (2 Bft) 0 min 4,8 km/h (1 Bft)
06.03.2010 17:46 15,1 C 2,5 C 0,0 UV-I 0,0 C 32 % 55 % 0 % 1026,7 hPa 0,0 l/m 6,4 km/h (2 Bft) 0 min 4,1 km/h (1 Bft)
06.03.2010 17:50 15,1 C 2,3 C 0,0 UV-I 0,0 C 32 % 56 % 0 % 1026,7 hPa 0,0 l/m 5,6 km/h (1 Bft) 0 min 5,1 km/h (1 Bft)
06.03.2010 17:52 14,9 C 2,3 C 0,0 UV-I 0,0 C 32 % 56 % 0 % 1026,9 hPa 0,0 l/m 5,2 km/h (1 Bft) 0 min 5,5 km/h (1 Bft)
06.03.2010 17:56 15,0 C 2,1 C 0,0 UV-I 0,0 C 32 % 57 % 0 % 1026,9 hPa 0,0 l/m 5,2 km/h (1 Bft) 0 min 5,8 km/h (2 Bft)
06.03.2010 17:58 14,9 C 2,0 C 0,0 UV-I 0,0 C 32 % 57 % 0 % 1026,9 hPa 0,0 l/m 5,2 km/h (1 Bft) 0 min 4,1 km/h (1 Bft)
06.03.2010 18:00 14,8 C 1,9 C 0,0 UV-I 0,0 C 32 % 58 % 0 % 1026,9 hPa 0,0 l/m 5,2 km/h (1 Bft) 0 min 3,6 km/h (1 Bft)
06.03.2010 18:02 14,8 C 1,9 C 0,0 UV-I 0,0 C 32 % 58 % 0 % 1026,9 hPa 0,0 l/m 5,2 km/h (1 Bft) 0 min 5,1 km/h (1 Bft)
06.03.2010 18:04 14,8 C 1,8 C 0,0 UV-I 0,0 C 32 % 58 % 0 % 1026,9 hPa 0,0 l/m 5,2 km/h (1 Bft) 0 min 5,8 km/h (2 Bft)
06.03.2010 18:06 14,7 C 1,6 C 0,0 UV-I 0,0 C 32 % 58 % 0 % 1026,9 hPa 0,0 l/m 4,8 km/h (1 Bft) 0 min 3,6 km/h (1 Bft)
06.03.2010 18:08 14,6 C 1,6 C 0,0 UV-I 0,0 C 32 % 59 % 0 % 1026,9 hPa 0,0 l/m 4,8 km/h (1 Bft) 0 min 4,1 km/h (1 Bft)
06.03.2010 18:10 14,6 C 1,5 C 0,0 UV-I 0,0 C 32 % 59 % 0 % 1026,9 hPa 0,0 l/m 5,2 km/h (1 Bft) 0 min 8,7 km/h (2 Bft)
06.03.2010 18:12 14,4 C 1,5 C 0,0 UV-I 0,0 C 32 % 59 % 0 % 1026,9 hPa 0,0 l/m 5,6 km/h (1 Bft) 0 min 3,1 km/h (1 Bft)
06.03.2010 18:14 14,3 C 1,5 C 0,0 UV-I 0,0 C 32 % 59 % 0 % 1026,9 hPa 0,0 l/m 5,2 km/h (1 Bft) 0 min 0,0 km/h (0 Bft)
06.03.2010 18:16 14,4 C 1,3 C 0,0 UV-I 0,0 C 32 % 59 % 0 % 1026,9 hPa 0,0 l/m 4,8 km/h (1 Bft) 0 min 3,1 km/h (1 Bft)
06.03.2010 18:18 14,4 C 1,2 C 0,0 UV-I 0,0 C 33 % 60 % 0 % 1026,9 hPa 0,0 l/m 4,4 km/h (1 Bft) 0 min 3,1 km/h (1 Bft)
06.03.2010 18:20 14,2 C 1,2 C 0,0 UV-I 0,0 C 33 % 60 % 0 % 1026,9 hPa 0,0 l/m 4,4 km/h (1 Bft) 0 min 3,4 km/h (1 Bft)
06.03.2010 18:22 14,1 C 1,1 C 0,0 UV-I 0,0 C 33 % 60 % 0 % 1026,9 hPa 0,0 l/m 3,6 km/h (1 Bft) 0 min 2,6 km/h (1 Bft)
06.03.2010 18:24 14,2 C 1,0 C 0,0 UV-I 0,0 C 33 % 60 % 0 % 1026,9 hPa 0,0 l/m 3,2 km/h (1 Bft) 0 min 0,0 km/h (0 Bft)
06.03.2010 18:26 14,2 C 1,0 C 0,0 UV-I 0,0 C 33 % 60 % 0 % 1026,9 hPa 0,0 l/m 2,8 km/h (1 Bft) 0 min 2,9 km/h (1 Bft)
06.03.2010 18:30 14,1 C 0,8 C 0,0 UV-I 0,0 C 33 % 61 % 0 % 1026,9 hPa 0,0 l/m 2,0 km/h (1 Bft) 0 min 2,6 km/h (1 Bft)
06.03.2010 18:34 14,0 C 0,7 C 0,0 UV-I 0,0 C 33 % 61 % 0 % 1027,3 hPa 0,0 l/m 1,2 km/h (1 Bft) 0 min 0,0 km/h (0 Bft)
06.03.2010 18:36 13,8 C 0,7 C 0,0 UV-I 0,0 C 33 % 62 % 0 % 1027,3 hPa 0,0 l/m 0,8 km/h (0 Bft) 0 min 2,6 km/h (1 Bft)
06.03.2010 18:38 13,9 C 0,6 C 0,0 UV-I 0,0 C 33 % 62 % 0 % 1027,3 hPa 0,0 l/m 0,8 km/h (0 Bft) 0 min 0,0 km/h (0 Bft)
06.03.2010 18:40 13,8 C 0,7 C 0,0 UV-I 0,0 C 33 % 62 % 0 % 1027,3 hPa 0,0 l/m 0,8 km/h (0 Bft) 0 min 0,0 km/h (0 Bft)
06.03.2010 18:42 13,8 C 0,7 C 0,0 UV-I 0,0 C 33 % 62 % 0 % 1027,3 hPa 0,0 l/m 0,4 km/h (0 Bft) 0 min 0,0 km/h (0 Bft)
06.03.2010 18:44 13,6 C 0,5 C 0,0 UV-I 0,0 C 33 % 63 % 0 % 1027,3 hPa 0,0 l/m 0,4 km/h (0 Bft) 0 min 0,0 km/h (0 Bft)
06.03.2010 18:48 13,6 C 0,5 C 0,0 UV-I 0,0 C 33 % 63 % 0 % 1027,3 hPa 0,0 l/m 0,0 km/h (0 Bft) 0 min 0,0 km/h (0 Bft)
06.03.2010 18:50 13,6 C 0,4 C 0,0 UV-I 0,0 C 33 % 63 % 0 % 1027,3 hPa 0,0 l/m 0,0 km/h (0 Bft) 0 min 0,0 km/h (0 Bft)
06.03.2010 18:52 13,4 C 0,3 C 0,0 UV-I 0,0 C 33 % 64 % 0 % 1027,3 hPa 0,0 l/m 0,0 km/h (0 Bft) 0 min 0,0 km/h (0 Bft)
06.03.2010 18:54 13,5 C 0,3 C 0,0 UV-I 0,0 C 33 % 64 % 0 % 1027,3 hPa 0,0 l/m 0,0 km/h (0 Bft) 0 min 0,0 km/h (0 Bft)
06.03.2010 18:56 13,5 C 0,3 C 0,0 UV-I 0,0 C 33 % 64 % 0 % 1027,3 hPa 0,0 l/m 0,0 km/h (0 Bft) 0 min 0,0 km/h (0 Bft)
06.03.2010 18:58 13,4 C 0,3 C 0,0 UV-I 0,0 C 33 % 64 % 0 % 1027,3 hPa 0,0 l/m 0,0 km/h (0 Bft) 0 min 0,0 km/h (0 Bft)
06.03.2010 19:02 13,2 C 0,1 C 0,0 UV-I 0,0 C 33 % 65 % 0 % 1027,3 hPa 0,0 l/m 0,0 km/h (0 Bft) 0 min 0,0 km/h (0 Bft)
06.03.2010 19:04 13,2 C 0,0 C 0,0 UV-I 0,0 C 33 % 65 % 0 % 1027,3 hPa 0,0 l/m 0,0 km/h (0 Bft) 0 min 0,0 km/h (0 Bft)
06.03.2010 19:10 13,2 C -0,1 C 0,0 UV-I 0,0 C 33 % 66 % 0 % 1027,3 hPa 0,0 l/m 0,0 km/h (0 Bft) 0 min 0,0 km/h (0 Bft)
06.03.2010 19:14 13,1 C -0,1 C 0,0 UV-I 0,0 C 33 % 66 % 0 % 1027,8 hPa 0,0 l/m 0,0 km/h (0 Bft) 0 min 0,0 km/h (0 Bft)
06.03.2010 19:18 13,0 C -0,1 C 0,0 UV-I 0,0 C 33 % 66 % 0 % 1027,8 hPa 0,0 l/m 0,4 km/h (0 Bft) 0 min 0,0 km/h (0 Bft)
06.03.2010 19:20 13,0 C -0,2 C 0,0 UV-I 0,0 C 33 % 67 % 0 % 1027,8 hPa 0,0 l/m 0,8 km/h (0 Bft) 0 min 0,0 km/h (0 Bft)
06.03.2010 19:22 13,0 C -0,1 C 0,0 UV-I 0,0 C 33 % 67 % 0 % 1027,8 hPa 0,0 l/m 0,8 km/h (0 Bft) 0 min 0,0 km/h (0 Bft)
06.03.2010 19:24 12,8 C -0,1 C 0,0 UV-I 0,0 C 34 % 67 % 0 % 1027,8 hPa 0,0 l/m 0,8 km/h (0 Bft) 0 min 0,0 km/h (0 Bft)
06.03.2010 19:26 12,8 C -0,1 C 0,0 UV-I 0,0 C 34 % 67 % 0 % 1027,8 hPa 0,0 l/m 0,8 km/h (0 Bft) 0 min 0,0 km/h (0 Bft)
06.03.2010 19:28 12,8 C -0,1 C 0,0 UV-I 0,0 C 34 % 67 % 0 % 1027,8 hPa 0,0 l/m 0,4 km/h (0 Bft) 0 min 0,0 km/h (0 Bft)
06.03.2010 19:30 12,8 C -0,3 C 0,0 UV-I 0,0 C 34 % 67 % 0 % 1027,8 hPa 0,0 l/m 0,0 km/h (0 Bft) 0 min 0,0 km/h (0 Bft)
06.03.2010 19:32 12,8 C -0,1 C 0,0 UV-I 0,0 C 34 % 68 % 0 % 1027,5 hPa 0,0 l/m 0,0 km/h (0 Bft) 0 min 0,0 km/h (0 Bft)
06.03.2010 19:34 12,8 C -0,3 C 0,0 UV-I 0,0 C 34 % 67 % 0 % 1027,5 hPa 0,0 l/m 0,0 km/h (0 Bft) 0 min 0,0 km/h (0 Bft)
06.03.2010 19:38 12,8 C -0,3 C 0,0 UV-I 0,0 C 34 % 67 % 0 % 1027,5 hPa 0,0 l/m 0,0 km/h (0 Bft) 0 min 0,0 km/h (0 Bft)
06.03.2010 19:46 12,7 C -0,3 C 0,0 UV-I 0,0 C 34 % 68 % 0 % 1027,5 hPa 0,0 l/m 0,0 km/h (0 Bft) 0 min 0,0 km/h (0 Bft)
06.03.2010 19:50 12,6 C -0,3 C 0,0 UV-I 0,0 C 34 % 68 % 0 % 1027,5 hPa 0,0 l/m 0,0 km/h (0 Bft) 0 min 0,0 km/h (0 Bft)
06.03.2010 19:52 12,6 C -0,3 C 0,0 UV-I 0,0 C 34 % 69 % 0 % 1027,5 hPa 0,0 l/m 0,0 km/h (0 Bft) 0 min 0,0 km/h (0 Bft)
06.03.2010 19:54 12,6 C -0,3 C 0,0 UV-I 0,0 C 34 % 69 % 0 % 1027,5 hPa 0,0 l/m 0,0 km/h (0 Bft) 0 min 0,0 km/h (0 Bft)
06.03.2010 19:58 12,4 C -0,3 C 0,0 UV-I 0,0 C 34 % 69 % 0 % 1027,5 hPa 0,0 l/m 0,0 km/h (0 Bft) 0 min 0,0 km/h (0 Bft)
06.03.2010 20:00 12,4 C -0,3 C 0,0 UV-I 0,0 C 35 % 69 % 0 % 1027,5 hPa 0,0 l/m 0,0 km/h (0 Bft) 0 min 0,0 km/h (0 Bft)
06.03.2010 20:02 12,5 C -0,4 C 0,0 UV-I 0,0 C 35 % 69 % 0 % 1027,5 hPa 0,0 l/m 0,4 km/h (0 Bft) 0 min 0,0 km/h (0 Bft)
06.03.2010 20:04 12,5 C -0,4 C 0,0 UV-I 0,0 C 35 % 70 % 0 % 1027,5 hPa 0,0 l/m 0,4 km/h (0 Bft) 0 min 3,4 km/h (1 Bft)
06.03.2010 20:08 12,3 C -0,4 C 0,0 UV-I 0,0 C 35 % 70 % 0 % 1027,5 hPa 0,0 l/m 0,4 km/h (0 Bft) 0 min 0,0 km/h (0 Bft)
06.03.2010 20:10 12,3 C -0,4 C 0,0 UV-I 0,0 C 35 % 70 % 0 % 1027,5 hPa 0,0 l/m 0,4 km/h (0 Bft) 0 min 0,0 km/h (0 Bft)
06.03.2010 20:12 12,3 C -0,4 C 0,0 UV-I 0,0 C 35 % 70 % 0 % 1027,8 hPa 0,0 l/m 0,8 km/h (0 Bft) 0 min 0,0 km/h (0 Bft)
06.03.2010 20:14 12,4 C -0,4 C 0,0 UV-I 0,0 C 35 % 70 % 0 % 1027,8 hPa 0,0 l/m 0,8 km/h (0 Bft) 0 min 0,0 km/h (0 Bft)
06.03.2010 20:16 12,4 C -0,4 C 0,0 UV-I 0,0 C 35 % 70 % 0 % 1027,8 hPa 0,0 l/m 0,8 km/h (0 Bft) 0 min 2,6 km/h (1 Bft)
06.03.2010 20:18 12,4 C -0,4 C 0,0 UV-I 0,0 C 35 % 70 % 0 % 1027,8 hPa 0,0 l/m 0,8 km/h (0 Bft) 0 min 3,1 km/h (1 Bft)
06.03.2010 20:20 12,4 C -0,4 C 0,0 UV-I 0,0 C 35 % 70 % 0 % 1027,8 hPa 0,0 l/m 1,2 km/h (1 Bft) 0 min 0,0 km/h (0 Bft)
06.03.2010 20:22 12,4 C -0,4 C 0,0 UV-I 0,0 C 35 % 70 % 0 % 1027,8 hPa 0,0 l/m 0,8 km/h (0 Bft) 0 min 0,0 km/h (0 Bft)
06.03.2010 20:26 12,2 C -0,4 C 0,0 UV-I 0,0 C 35 % 71 % 0 % 1027,8 hPa 0,0 l/m 0,4 km/h (0 Bft) 0 min 0,0 km/h (0 Bft)
06.03.2010 20:28 12,2 C -0,4 C 0,0 UV-I 0,0 C 35 % 71 % 0 % 1027,8 hPa 0,0 l/m 0,4 km/h (0 Bft) 0 min 3,4 km/h (1 Bft)
06.03.2010 20:30 12,4 C -0,4 C 0,0 UV-I 0,0 C 35 % 71 % 0 % 1027,8 hPa 0,0 l/m 0,4 km/h (0 Bft) 0 min 3,4 km/h (1 Bft)
06.03.2010 20:36 12,3 C -0,3 C 0,0 UV-I 0,0 C 35 % 71 % 0 % 1027,8 hPa 0,0 l/m 3,2 km/h (1 Bft) 0 min 6,5 km/h (2 Bft)
06.03.2010 20:40 12,3 C -0,3 C 0,0 UV-I 0,0 C 36 % 71 % 0 % 1027,8 hPa 0,0 l/m 4,4 km/h (1 Bft) 0 min 4,6 km/h (1 Bft)
06.03.2010 20:42 12,3 C -0,1 C 0,0 UV-I 0,0 C 36 % 71 % 0 % 1027,8 hPa 0,0 l/m 4,4 km/h (1 Bft) 0 min 0,0 km/h (0 Bft)
06.03.2010 20:44 12,3 C -0,1 C 0,0 UV-I 0,0 C 36 % 72 % 0 % 1027,8 hPa 0,0 l/m 4,4 km/h (1 Bft) 0 min 2,9 km/h (1 Bft)
06.03.2010 20:46 12,1 C -0,1 C 0,0 UV-I 0,0 C 36 % 72 % 0 % 1027,8 hPa 0,0 l/m 3,6 km/h (1 Bft) 0 min 0,0 km/h (0 Bft)
06.03.2010 20:48 12,1 C -0,3 C 0,0 UV-I 0,0 C 36 % 72 % 0 % 1027,8 hPa 0,0 l/m 2,4 km/h (1 Bft) 0 min 0,0 km/h (0 Bft)
06.03.2010 20:50 12,2 C -0,3 C 0,0 UV-I 0,0 C 36 % 72 % 0 % 1027,8 hPa 0,0 l/m 2,0 km/h (1 Bft) 0 min 0,0 km/h (0 Bft)
06.03.2010 20:54 12,2 C -0,1 C 0,0 UV-I 0,0 C 36 % 72 % 0 % 1027,9 hPa 0,0 l/m 0,8 km/h (0 Bft) 0 min 3,8 km/h (1 Bft)
06.03.2010 20:56 12,2 C -0,3 C 0,0 UV-I 0,0 C 36 % 72 % 0 % 1027,9 hPa 0,0 l/m 0,4 km/h (0 Bft) 0 min 0,0 km/h (0 Bft)
06.03.2010 20:58 12,2 C -0,3 C 0,0 UV-I 0,0 C 36 % 72 % 0 % 1027,9 hPa 0,0 l/m 0,4 km/h (0 Bft) 0 min 0,0 km/h (0 Bft)
06.03.2010 21:00 12,2 C -0,1 C 0,0 UV-I 0,0 C 36 % 72 % 0 % 1027,9 hPa 0,0 l/m 0,4 km/h (0 Bft) 0 min 2,4 km/h (1 Bft)
06.03.2010 21:02 12,2 C -0,3 C 0,0 UV-I 0,0 C 36 % 73 % 0 % 1027,9 hPa 0,0 l/m 0,4 km/h (0 Bft) 0 min 0,0 km/h (0 Bft)
06.03.2010 21:04 12,2 C -0,3 C 0,0 UV-I 0,0 C 36 % 73 % 0 % 1027,9 hPa 0,0 l/m 0,8 km/h (0 Bft) 0 min 2,4 km/h (1 Bft)
06.03.2010 21:06 12,2 C -0,3 C 0,0 UV-I 0,0 C 36 % 74 % 0 % 1027,9 hPa 0,0 l/m 0,8 km/h (0 Bft) 0 min 2,6 km/h (1 Bft)
06.03.2010 21:08 12,2 C -0,3 C 0,0 UV-I 0,0 C 36 % 74 % 0 % 1027,9 hPa 0,0 l/m 1,2 km/h (1 Bft) 0 min 2,4 km/h (1 Bft)
06.03.2010 21:12 12,2 C -0,3 C 0,0 UV-I 0,0 C 36 % 74 % 0 % 1027,9 hPa 0,0 l/m 1,2 km/h (1 Bft) 0 min 3,8 km/h (1 Bft)
06.03.2010 21:14 12,2 C -0,3 C 0,0 UV-I 0,0 C 36 % 74 % 0 % 1027,9 hPa 0,0 l/m 1,2 km/h (1 Bft) 0 min 0,0 km/h (0 Bft)
06.03.2010 21:16 12,2 C -0,3 C 0,0 UV-I 0,0 C 36 % 74 % 0 % 1027,9 hPa 0,0 l/m 0,8 km/h (0 Bft) 0 min 0,0 km/h (0 Bft)
06.03.2010 21:18 12,2 C -0,3 C 0,0 UV-I 0,0 C 37 % 74 % 0 % 1027,9 hPa 0,0 l/m 0,4 km/h (0 Bft) 0 min 2,6 km/h (1 Bft)
06.03.2010 21:20 12,2 C -0,3 C 0,0 UV-I 0,0 C 37 % 74 % 0 % 1027,9 hPa 0,0 l/m 0,4 km/h (0 Bft) 0 min 0,0 km/h (0 Bft)
06.03.2010 21:22 12,2 C -0,4 C 0,0 UV-I 0,0 C 37 % 75 % 0 % 1027,9 hPa 0,0 l/m 0,4 km/h (0 Bft) 0 min 0,0 km/h (0 Bft)
06.03.2010 21:28 12,1 C -0,3 C 0,0 UV-I 0,0 C 37 % 75 % 0 % 1027,9 hPa 0,0 l/m 1,2 km/h (1 Bft) 0 min 3,6 km/h (1 Bft)
06.03.2010 21:30 12,2 C -0,3 C 0,0 UV-I 0,0 C 37 % 75 % 0 % 1027,9 hPa 0,0 l/m 1,2 km/h (1 Bft) 0 min 0,0 km/h (0 Bft)
06.03.2010 21:32 12,1 C -0,3 C 0,0 UV-I 0,0 C 37 % 75 % 0 % 1027,9 hPa 0,0 l/m 1,2 km/h (1 Bft) 0 min 0,0 km/h (0 Bft)
06.03.2010 21:34 12,1 C -0,3 C 0,0 UV-I 0,0 C 37 % 75 % 0 % 1027,9 hPa 0,0 l/m 0,8 km/h (0 Bft) 0 min 0,0 km/h (0 Bft)
06.03.2010 21:36 12,1 C -0,3 C 0,0 UV-I 0,0 C 37 % 75 % 0 % 1027,9 hPa 0,0 l/m 1,2 km/h (1 Bft) 0 min 3,8 km/h (1 Bft)
06.03.2010 21:38 12,1 C -0,3 C 0,0 UV-I 0,0 C 37 % 75 % 0 % 1027,9 hPa 0,0 l/m 1,2 km/h (1 Bft) 0 min 0,0 km/h (0 Bft)
06.03.2010 21:40 12,1 C -0,3 C 0,0 UV-I 0,0 C 37 % 74 % 0 % 1027,9 hPa 0,0 l/m 1,6 km/h (1 Bft) 0 min 3,4 km/h (1 Bft)
06.03.2010 21:42 12,1 C -0,3 C 0,0 UV-I 0,0 C 37 % 74 % 0 % 1027,9 hPa 0,0 l/m 2,0 km/h (1 Bft) 0 min 0,0 km/h (0 Bft)
06.03.2010 21:44 12,1 C -0,3 C 0,0 UV-I 0,0 C 37 % 74 % 0 % 1027,9 hPa 0,0 l/m 2,0 km/h (1 Bft) 0 min 2,6 km/h (1 Bft)
06.03.2010 21:46 12,1 C -0,3 C 0,0 UV-I 0,0 C 37 % 75 % 0 % 1027,9 hPa 0,0 l/m 2,0 km/h (1 Bft) 0 min 2,9 km/h (1 Bft)
06.03.2010 21:48 12,1 C -0,3 C 0,0 UV-I 0,0 C 37 % 75 % 0 % 1027,9 hPa 0,0 l/m 1,6 km/h (1 Bft) 0 min 2,6 km/h (1 Bft)
06.03.2010 21:50 12,1 C -0,3 C 0,0 UV-I 0,0 C 37 % 74 % 0 % 1027,9 hPa 0,0 l/m 1,6 km/h (1 Bft) 0 min 0,0 km/h (0 Bft)
06.03.2010 21:52 12,1 C -0,4 C 0,0 UV-I 0,0 C 37 % 75 % 0 % 1028,8 hPa 0,0 l/m 0,8 km/h (0 Bft) 0 min 2,4 km/h (1 Bft)
06.03.2010 21:54 12,1 C -0,3 C 0,0 UV-I 0,0 C 37 % 75 % 0 % 1028,8 hPa 0,0 l/m 1,6 km/h (1 Bft) 0 min 3,4 km/h (1 Bft)
06.03.2010 21:56 12,1 C -0,3 C 0,0 UV-I 0,0 C 37 % 75 % 0 % 1028,8 hPa 0,0 l/m 1,6 km/h (1 Bft) 0 min 0,0 km/h (0 Bft)
06.03.2010 21:58 12,1 C -0,4 C 0,0 UV-I 0,0 C 37 % 75 % 0 % 1028,8 hPa 0,0 l/m 1,2 km/h (1 Bft) 0 min 0,0 km/h (0 Bft)
06.03.2010 22:00 12,1 C -0,4 C 0,0 UV-I 0,0 C 37 % 75 % 0 % 1028,8 hPa 0,0 l/m 1,2 km/h (1 Bft) 0 min 0,0 km/h (0 Bft)
06.03.2010 22:02 12,1 C -0,4 C 0,0 UV-I 0,0 C 37 % 75 % 0 % 1028,8 hPa 0,0 l/m 1,6 km/h (1 Bft) 0 min 0,0 km/h (0 Bft)
06.03.2010 22:04 12,1 C -0,4 C 0,0 UV-I 0,0 C 37 % 76 % 0 % 1028,8 hPa 0,0 l/m 0,8 km/h (0 Bft) 0 min 0,0 km/h (0 Bft)
06.03.2010 22:06 12,1 C -0,4 C 0,0 UV-I 0,0 C 37 % 76 % 0 % 1028,8 hPa 0,0 l/m 0,4 km/h (0 Bft) 0 min 0,0 km/h (0 Bft)
06.03.2010 22:08 11,9 C -0,4 C 0,0 UV-I 0,0 C 37 % 76 % 0 % 1028,8 hPa 0,0 l/m 0,4 km/h (0 Bft) 0 min 0,0 km/h (0 Bft)
06.03.2010 22:10 12,1 C -0,4 C 0,0 UV-I 0,0 C 37 % 76 % 0 % 1028,8 hPa 0,0 l/m 0,0 km/h (0 Bft) 0 min 0,0 km/h (0 Bft)
06.03.2010 22:12 12,1 C -0,3 C 0,0 UV-I 0,0 C 37 % 77 % 0 % 1028,8 hPa 0,0 l/m 0,0 km/h (0 Bft) 0 min 2,6 km/h (1 Bft)
06.03.2010 22:18 11,9 C -0,5 C 0,0 UV-I 0,0 C 37 % 77 % 0 % 1028,8 hPa 0,0 l/m 0,4 km/h (0 Bft) 0 min 0,0 km/h (0 Bft)
06.03.2010 22:20 11,9 C -0,5 C 0,0 UV-I 0,0 C 37 % 77 % 0 % 1028,8 hPa 0,0 l/m 0,4 km/h (0 Bft) 0 min 0,0 km/h (0 Bft)
06.03.2010 22:22 12,1 C -0,5 C 0,0 UV-I 0,0 C 37 % 77 % 0 % 1028,8 hPa 0,0 l/m 0,4 km/h (0 Bft) 0 min 0,0 km/h (0 Bft)
06.03.2010 22:24 11,9 C -0,5 C 0,0 UV-I 0,0 C 37 % 77 % 0 % 1028,8 hPa 0,0 l/m 0,4 km/h (0 Bft) 0 min 0,0 km/h (0 Bft)
06.03.2010 22:26 11,9 C -0,5 C 0,0 UV-I 0,0 C 37 % 77 % 0 % 1028,8 hPa 0,0 l/m 0,0 km/h (0 Bft) 0 min 0,0 km/h (0 Bft)
06.03.2010 22:30 11,9 C -0,5 C 0,0 UV-I 0,0 C 38 % 77 % 0 % 1028,8 hPa 0,0 l/m 0,0 km/h (0 Bft) 0 min 0,0 km/h (0 Bft)
06.03.2010 22:32 11,9 C -0,5 C 0,0 UV-I 0,0 C 38 % 78 % 0 % 1028,8 hPa 0,0 l/m 0,0 km/h (0 Bft) 0 min 0,0 km/h (0 Bft)
06.03.2010 22:36 11,9 C -0,6 C 0,0 UV-I 0,0 C 38 % 78 % 0 % 1028,8 hPa 0,0 l/m 0,0 km/h (0 Bft) 0 min 0,0 km/h (0 Bft)
06.03.2010 22:38 11,9 C -0,5 C 0,0 UV-I 0,0 C 38 % 78 % 0 % 1028,8 hPa 0,0 l/m 0,0 km/h (0 Bft) 0 min 0,0 km/h (0 Bft)
06.03.2010 22:42 12,0 C -0,5 C 0,0 UV-I 0,0 C 38 % 78 % 0 % 1028,8 hPa 0,0 l/m 0,0 km/h (0 Bft) 0 min 0,0 km/h (0 Bft)
06.03.2010 22:44 12,0 C -0,5 C 0,0 UV-I 0,0 C 38 % 78 % 0 % 1028,8 hPa 0,0 l/m 0,0 km/h (0 Bft) 0 min 0,0 km/h (0 Bft)
06.03.2010 22:46 12,0 C -0,5 C 0,0 UV-I 0,0 C 38 % 78 % 0 % 1028,8 hPa 0,0 l/m 0,0 km/h (0 Bft) 0 min 0,0 km/h (0 Bft)
06.03.2010 22:48 12,0 C -0,5 C 0,0 UV-I 0,0 C 38 % 78 % 0 % 1028,8 hPa 0,0 l/m 0,0 km/h (0 Bft) 0 min 0,0 km/h (0 Bft)
06.03.2010 22:50 12,0 C -0,7 C 0,0 UV-I 0,0 C 38 % 78 % 0 % 1028,8 hPa 0,0 l/m 0,0 km/h (0 Bft) 0 min 0,0 km/h (0 Bft)
06.03.2010 22:54 12,0 C -0,7 C 0,0 UV-I 0,0 C 38 % 78 % 0 % 1028,8 hPa 0,0 l/m 0,4 km/h (0 Bft) 0 min 0,0 km/h (0 Bft)
06.03.2010 22:56 12,0 C -0,7 C 0,0 UV-I 0,0 C 38 % 78 % 0 % 1028,8 hPa 0,0 l/m 0,4 km/h (0 Bft) 0 min 0,0 km/h (0 Bft)
06.03.2010 22:58 12,0 C -0,7 C 0,0 UV-I 0,0 C 38 % 78 % 0 % 1028,8 hPa 0,0 l/m 0,4 km/h (0 Bft) 0 min 0,0 km/h (0 Bft)
06.03.2010 23:02 11,8 C -0,8 C 0,0 UV-I 0,0 C 38 % 78 % 0 % 1028,8 hPa 0,0 l/m 0,4 km/h (0 Bft) 0 min 0,0 km/h (0 Bft)
06.03.2010 23:04 12,0 C -0,8 C 0,0 UV-I 0,0 C 38 % 78 % 0 % 1028,8 hPa 0,0 l/m 0,0 km/h (0 Bft) 0 min 0,0 km/h (0 Bft)
06.03.2010 23:08 11,8 C -0,8 C 0,0 UV-I 0,0 C 38 % 78 % 0 % 1028,8 hPa 0,0 l/m 0,0 km/h (0 Bft) 0 min 0,0 km/h (0 Bft)
06.03.2010 23:10 12,0 C -0,7 C 0,0 UV-I 0,0 C 38 % 78 % 0 % 1028,8 hPa 0,0 l/m 0,0 km/h (0 Bft) 0 min 0,0 km/h (0 Bft)
06.03.2010 23:12 11,8 C -0,7 C 0,0 UV-I 0,0 C 38 % 78 % 0 % 1028,8 hPa 0,0 l/m 0,0 km/h (0 Bft) 0 min 0,0 km/h (0 Bft)
06.03.2010 23:14 11,8 C -0,9 C 0,0 UV-I 0,0 C 38 % 78 % 0 % 1028,8 hPa 0,0 l/m 0,0 km/h (0 Bft) 0 min 2,9 km/h (1 Bft)
06.03.2010 23:18 12,0 C -0,9 C 0,0 UV-I 0,0 C 38 % 77 % 0 % 1028,8 hPa 0,0 l/m 0,8 km/h (0 Bft) 0 min 0,0 km/h (0 Bft)
06.03.2010 23:23 11,9 C -0,9 C 0,0 UV-I 0,0 C 38 % 77 % 0 % 1028,8 hPa 0,0 l/m 0,8 km/h (0 Bft) 0 min 0,0 km/h (0 Bft)
06.03.2010 23:26 11,9 C -0,9 C 0,0 UV-I 0,0 C 38 % 77 % 0 % 1028,8 hPa 0,0 l/m 0,4 km/h (0 Bft) 0 min 0,0 km/h (0 Bft)
06.03.2010 23:28 11,9 C -0,9 C 0,0 UV-I 0,0 C 38 % 77 % 0 % 1028,8 hPa 0,0 l/m 0,4 km/h (0 Bft) 0 min 0,0 km/h (0 Bft)
06.03.2010 23:30 11,9 C -0,9 C 0,0 UV-I 0,0 C 38 % 77 % 0 % 1028,8 hPa 0,0 l/m 0,4 km/h (0 Bft) 0 min 0,0 km/h (0 Bft)
06.03.2010 23:34 11,9 C -0,9 C 0,0 UV-I 0,0 C 38 % 77 % 0 % 1029,3 hPa 0,0 l/m 0,4 km/h (0 Bft) 0 min 3,8 km/h (1 Bft)
06.03.2010 23:36 11,9 C -0,9 C 0,0 UV-I 0,0 C 38 % 77 % 0 % 1029,3 hPa 0,0 l/m 0,4 km/h (0 Bft) 0 min 0,0 km/h (0 Bft)
06.03.2010 23:38 11,9 C -0,9 C 0,0 UV-I 0,0 C 38 % 77 % 0 % 1029,3 hPa 0,0 l/m 0,4 km/h (0 Bft) 0 min 0,0 km/h (0 Bft)
06.03.2010 23:42 11,9 C -0,9 C 0,0 UV-I 0,0 C 38 % 77 % 0 % 1029,3 hPa 0,0 l/m 0,4 km/h (0 Bft) 0 min 0,0 km/h (0 Bft)
06.03.2010 23:44 11,8 C -0,9 C 0,0 UV-I 0,0 C 38 % 77 % 0 % 1029,3 hPa 0,0 l/m 0,4 km/h (0 Bft) 0 min 0,0 km/h (0 Bft)
06.03.2010 23:46 11,8 C -0,9 C 0,0 UV-I 0,0 C 38 % 77 % 0 % 1029,3 hPa 0,0 l/m 0,4 km/h (0 Bft) 0 min 0,0 km/h (0 Bft)
06.03.2010 23:48 11,8 C -0,9 C 0,0 UV-I 0,0 C 38 % 77 % 0 % 1029,3 hPa 0,0 l/m 0,0 km/h (0 Bft) 0 min 0,0 km/h (0 Bft)
06.03.2010 23:50 11,8 C -0,9 C 0,0 UV-I 0,0 C 38 % 77 % 0 % 1029,3 hPa 0,0 l/m 0,0 km/h (0 Bft) 0 min 0,0 km/h (0 Bft)
06.03.2010 23:52 11,8 C -1,0 C 0,0 UV-I 0,0 C 38 % 77 % 0 % 1029,3 hPa 0,0 l/m 0,0 km/h (0 Bft) 0 min 0,0 km/h (0 Bft)
06.03.2010 23:54 11,8 C -1,0 C 0,0 UV-I 0,0 C 38 % 76 % 0 % 1029,3 hPa 0,0 l/m 0,4 km/h (0 Bft) 0 min 3,1 km/h (1 Bft)
06.03.2010 23:56 11,8 C -0,9 C 0,0 UV-I 0,0 C 38 % 76 % 0 % 1029,3 hPa 0,0 l/m 0,4 km/h (0 Bft) 0 min 0,0 km/h (0 Bft)
06.03.2010 23:58 11,8 C -0,9 C 0,0 UV-I 0,0 C 38 % 76 % 0 % 1029,3 hPa 0,0 l/m 0,4 km/h (0 Bft) 0 min 3,1 km/h (1 Bft)
_ Min-Zeit 00:06 23:52 00:00 00:00 15:48 16:16 00:00 04:53 - 18:48 - 01:38
Minimum _ 11,3 C -1,0 C 0,0 UV-I 0,0 C 31 % 48 % 0 % 1011,7 hPa - 0,0 km/h (0 Bft) - 0,0 km/h (0 Bft)
_ Max-Zeit 15:46 15:42 12:34 11:52 00:42 00:12 11:28 15:32 00:58 06:23 11:26 15:14
Maximum _ 16,6 C 4,9 C 8,1 UV-I 7,8 C 50 % 94 % 100 % 1030,1 hPa 0,7 l/m 17,3 km/h
SW (3 Bft)
2 min 26,7 km/h
S (4 Bft)
Durchschnitt _ 12,6 C 1,4 C 1,0 UV-I 1,2 C 41 % 76 % 24 % 1021,2 hPa #2,8 l/m 7,2 km/h (2 Bft) #4:24 h 6,1 km/h (2 Bft)
© 2012 W. Hausmann